Time,TemperatureF,DewpointF,PressureIn,WindDirection,WindDirectionDegrees,WindSpeedMPH,WindSpeedGustMPH,Humidity,HourlyPrecipIn,Conditions,Clouds,dailyrainin,SoftwareType,DateUTC
2013-05-29 00:00:00,73.8,64.4,29.85,SSW,192,5.0,9.9,73,0.00,,CLR,0.00,VWS V14.01,2013-05-29 05:00:00,
2013-05-29 00:02:00,73.8,64.4,29.85,SSW,211,3.3,9.9,73,0.00,,CLR,0.00,VWS V14.01,2013-05-29 05:02:00,
2013-05-29 00:04:00,73.8,64.4,29.85,South,173,4.4,7.0,73,0.00,,CLR,0.00,VWS V14.01,2013-05-29 05:04:00,
2013-05-29 00:06:00,73.8,64.4,29.85,South,191,6.1,9.9,73,0.00,,CLR,0.00,VWS V14.01,2013-05-29 05:06:00,
2013-05-29 00:08:00,73.8,64.4,29.85,SW,222,7.2,9.9,73,0.00,,CLR,0.00,VWS V14.01,2013-05-29 05:08:00,
2013-05-29 00:10:00,73.8,64.4,29.85,South,186,9.4,10.8,73,0.00,,CLR,0.00,VWS V14.01,2013-05-29 05:10:00,
2013-05-29 00:12:00,73.8,64.4,29.85,SSW,207,6.7,10.8,73,0.00,,CLR,0.00,VWS V14.01,2013-05-29 05:12:00,
2013-05-29 00:14:00,73.8,64.4,29.85,SSE,149,7.8,10.5,73,0.00,,CLR,0.00,VWS V14.01,2013-05-29 05:14:00,
2013-05-29 00:16:00,73.8,64.4,29.85,SSE,152,9.4,11.3,73,0.00,,CLR,0.00,VWS V14.01,2013-05-29 05:16:00,
2013-05-29 00:18:00,73.6,64.2,29.85,South,175,12.5,16.0,73,0.00,,CLR,0.00,VWS V14.01,2013-05-29 05:18:00,
2013-05-29 00:20:00,73.6,64.2,29.85,SSE,150,10.0,12.5,73,0.00,,CLR,0.00,VWS V14.01,2013-05-29 05:20:00,
2013-05-29 00:22:00,73.8,64.4,29.85,SW,214,3.3,10.5,73,0.00,,CLR,0.00,VWS V14.01,2013-05-29 05:22:00,
2013-05-29 00:24:00,73.8,64.4,29.85,SSW,192,7.8,9.9,73,0.00,,CLR,0.00,VWS V14.01,2013-05-29 05:24:00,
2013-05-29 00:26:00,73.9,64.6,29.85,SSE,151,6.1,10.5,73,0.00,,CLR,0.00,VWS V14.01,2013-05-29 05:26:00,
2013-05-29 00:28:00,73.9,64.6,29.85,South,189,10.0,10.8,73,0.00,,CLR,0.00,VWS V14.01,2013-05-29 05:28:00,
2013-05-29 00:30:00,73.9,64.6,29.85,SSE,165,2.8,10.5,73,0.00,,CLR,0.00,VWS V14.01,2013-05-29 05:30:00,
2013-05-29 00:32:00,73.9,64.1,29.85,SSE,150,7.8,8.1,71,0.00,,CLR,0.00,VWS V14.01,2013-05-29 05:32:00,
2013-05-29 00:34:00,73.8,63.9,29.85,SSE,160,7.2,13.1,71,0.00,,CLR,0.00,VWS V14.01,2013-05-29 05:34:00,
2013-05-29 00:36:00,73.8,64.4,29.85,ESE,122,5.0,7.6,73,0.00,,CLR,0.00,VWS V14.01,2013-05-29 05:36:00,
2013-05-29 00:38:00,73.8,64.4,29.85,SSE,158,9.4,10.5,73,0.00,,CLR,0.00,VWS V14.01,2013-05-29 05:38:00,
2013-05-29 00:40:00,73.8,64.4,29.85,SE,129,3.9,11.3,73,0.00,,CLR,0.00,VWS V14.01,2013-05-29 05:40:00,
2013-05-29 00:42:00,73.6,64.2,29.85,South,184,7.2,7.6,73,0.00,,CLR,0.00,VWS V14.01,2013-05-29 05:42:00,
2013-05-29 00:44:00,73.6,64.2,29.85,SSW,195,7.8,8.1,73,0.00,,CLR,0.00,VWS V14.01,2013-05-29 05:44:00,
2013-05-29 00:46:00,73.6,64.2,29.85,SSE,150,7.8,10.8,73,0.00,,CLR,0.00,VWS V14.01,2013-05-29 05:46:00,
2013-05-29 00:48:00,73.6,64.2,29.85,SE,141,4.4,11.3,73,0.00,,CLR,0.00,VWS V14.01,2013-05-29 05:48:00,
2013-05-29 00:50:00,73.6,63.7,29.85,WSW,245,5.0,8.1,71,0.00,,CLR,0.00,VWS V14.01,2013-05-29 05:50:00,
2013-05-29 00:52:00,73.6,63.7,29.85,SSE,157,2.8,10.8,71,0.00,,CLR,0.00,VWS V14.01,2013-05-29 05:52:00,
2013-05-29 00:54:00,73.4,63.5,29.85,SE,135,3.3,7.6,71,0.00,,CLR,0.00,VWS V14.01,2013-05-29 05:54:00,
2013-05-29 00:56:00,73.4,63.5,29.85,SSE,153,4.4,8.1,71,0.00,,CLR,0.00,VWS V14.01,2013-05-29 05:56:00,
2013-05-29 00:58:00,73.2,63.9,29.85,SSE,155,4.4,12.5,73,0.00,,CLR,0.00,VWS V14.01,2013-05-29 05:58:00,
2013-05-29 01:00:00,73.2,64.4,29.85,SE,143,4.4,8.1,74,0.00,,CLR,0.00,VWS V14.01,2013-05-29 06:00:00,
2013-05-29 01:02:00,73.0,63.7,29.85,SE,142,3.9,8.1,73,0.00,,CLR,0.00,VWS V14.01,2013-05-29 06:02:00,
2013-05-29 01:04:00,73.0,63.7,29.85,East,98,5.0,7.0,73,0.00,,CLR,0.00,VWS V14.01,2013-05-29 06:04:00,
2013-05-29 01:06:00,72.9,63.5,29.85,SSE,164,3.3,7.0,73,0.00,,CLR,0.00,VWS V14.01,2013-05-29 06:06:00,
2013-05-29 01:08:00,72.9,63.5,29.85,South,185,5.0,5.2,73,0.00,,CLR,0.00,VWS V14.01,2013-05-29 06:08:00,
2013-05-29 01:10:00,72.7,63.9,29.85,SE,139,6.7,7.0,74,0.00,,CLR,0.00,VWS V14.01,2013-05-29 06:10:00,
2013-05-29 01:12:00,72.5,63.7,29.85,ESE,120,3.9,7.6,74,0.00,,CLR,0.00,VWS V14.01,2013-05-29 06:12:00,
2013-05-29 01:14:00,72.5,63.7,29.85,East,88,9.4,9.9,74,0.00,,CLR,0.00,VWS V14.01,2013-05-29 06:14:00,
2013-05-29 01:16:00,72.3,64.1,29.85,SSE,167,6.7,9.9,75,0.00,,CLR,0.00,VWS V14.01,2013-05-29 06:16:00,
2013-05-29 01:18:00,72.1,63.9,29.85,ESE,104,2.8,9.9,75,0.00,,CLR,0.00,VWS V14.01,2013-05-29 06:18:00,
2013-05-29 01:20:00,72.1,63.9,29.85,SE,144,2.8,9.9,75,0.00,,CLR,0.00,VWS V14.01,2013-05-29 06:20:00,
2013-05-29 01:22:00,72.0,64.2,29.85,SSE,155,2.8,5.2,77,0.00,,CLR,0.00,VWS V14.01,2013-05-29 06:22:00,
2013-05-29 01:24:00,72.0,64.2,29.85,SSE,155,6.7,8.1,77,0.00,,CLR,0.00,VWS V14.01,2013-05-29 06:24:00,
2013-05-29 01:26:00,71.8,64.0,29.85,SE,143,7.8,8.7,77,0.00,,CLR,0.00,VWS V14.01,2013-05-29 06:26:00,
2013-05-29 01:28:00,71.8,64.0,29.85,SSE,150,4.4,8.7,77,0.00,,CLR,0.00,VWS V14.01,2013-05-29 06:28:00,
2013-05-29 01:30:00,71.8,64.5,29.85,SSE,166,6.1,7.6,78,0.00,,CLR,0.00,VWS V14.01,2013-05-29 06:30:00,
2013-05-29 01:32:00,71.8,64.5,29.85,SSE,155,4.4,8.7,78,0.00,,CLR,0.00,VWS V14.01,2013-05-29 06:32:00,
2013-05-29 01:34:00,71.6,64.3,29.85,ESE,112,4.4,7.0,78,0.00,,CLR,0.00,VWS V14.01,2013-05-29 06:34:00,
2013-05-29 01:36:00,71.6,64.8,29.85,SSE,164,7.8,8.1,79,0.00,,CLR,0.00,VWS V14.01,2013-05-29 06:36:00,
2013-05-29 01:38:00,71.6,64.8,29.85,SSE,157,0.0,8.1,79,0.00,,CLR,0.00,VWS V14.01,2013-05-29 06:38:00,
2013-05-29 01:40:00,71.4,64.7,29.85,SE,144,0.0,6.4,79,0.00,,CLR,0.00,VWS V14.01,2013-05-29 06:40:00,
2013-05-29 01:42:00,71.4,64.7,29.85,SE,140,4.4,7.0,79,0.00,,CLR,0.00,VWS V14.01,2013-05-29 06:42:00,
2013-05-29 01:44:00,71.4,64.7,29.85,South,172,3.3,7.0,79,0.00,,CLR,0.00,VWS V14.01,2013-05-29 06:44:00,
2013-05-29 01:46:00,71.2,64.5,29.85,SSE,156,0.0,5.2,79,0.00,,CLR,0.00,VWS V14.01,2013-05-29 06:46:00,
2013-05-29 01:48:00,71.2,64.5,29.85,SSE,154,2.8,3.5,79,0.00,,CLR,0.00,VWS V14.01,2013-05-29 06:48:00,
2013-05-29 01:50:00,71.1,64.3,29.85,SSE,150,5.0,5.2,79,0.00,,CLR,0.00,VWS V14.01,2013-05-29 06:50:00,
2013-05-29 01:52:00,71.1,64.3,29.85,SE,138,3.3,6.4,79,0.00,,CLR,0.00,VWS V14.01,2013-05-29 06:52:00,
2013-05-29 01:54:00,70.9,64.1,29.85,SE,138,0.0,3.5,79,0.00,,CLR,0.00,VWS V14.01,2013-05-29 06:54:00,
2013-05-29 01:56:00,70.9,64.1,29.85,SSE,153,3.9,10.5,79,0.00,,CLR,0.00,VWS V14.01,2013-05-29 06:56:00,
2013-05-29 01:58:00,70.9,64.6,29.85,SSE,151,3.9,7.6,81,0.00,,CLR,0.00,VWS V14.01,2013-05-29 06:58:00,
2013-05-29 02:00:00,70.9,64.6,29.85,SSE,156,3.3,7.0,81,0.00,,CLR,0.00,VWS V14.01,2013-05-29 07:00:00,
2013-05-29 02:02:00,70.9,64.6,29.85,SE,135,4.4,6.4,81,0.00,,CLR,0.00,VWS V14.01,2013-05-29 07:02:00,
2013-05-29 02:04:00,70.9,64.6,29.85,SSE,163,3.3,5.2,81,0.00,,CLR,0.00,VWS V14.01,2013-05-29 07:04:00,
2013-05-29 02:06:00,70.9,64.6,29.85,South,184,3.3,5.2,81,0.00,,CLR,0.00,VWS V14.01,2013-05-29 07:06:00,
2013-05-29 02:08:00,70.9,64.6,29.85,SSE,159,0.0,5.2,81,0.00,,CLR,0.00,VWS V14.01,2013-05-29 07:08:00,
2013-05-29 02:10:00,70.9,64.6,29.85,South,183,5.0,5.2,81,0.00,,CLR,0.00,VWS V14.01,2013-05-29 07:10:00,
2013-05-29 02:12:00,71.1,65.2,29.85,South,183,4.4,8.1,82,0.00,,CLR,0.00,VWS V14.01,2013-05-29 07:12:00,
2013-05-29 02:14:00,71.1,65.2,29.85,ESE,118,3.3,8.1,82,0.00,,CLR,0.00,VWS V14.01,2013-05-29 07:14:00,
2013-05-29 02:16:00,71.1,65.2,29.85,South,173,3.3,6.4,82,0.00,,CLR,0.00,VWS V14.01,2013-05-29 07:16:00,
2013-05-29 02:18:00,71.1,65.2,29.85,SW,217,0.0,4.1,82,0.00,,CLR,0.00,VWS V14.01,2013-05-29 07:18:00,
2013-05-29 02:20:00,71.1,65.2,29.85,SE,141,0.0,3.5,82,0.00,,CLR,0.00,VWS V14.01,2013-05-29 07:20:00,
2013-05-29 02:22:00,71.1,65.2,29.85,SE,129,0.0,0.0,82,0.00,,CLR,0.00,VWS V14.01,2013-05-29 07:22:00,
2013-05-29 02:24:00,71.1,65.2,29.85,ESE,118,3.3,4.7,82,0.00,,CLR,0.00,VWS V14.01,2013-05-29 07:24:00,
2013-05-29 02:26:00,71.1,65.2,29.85,SSE,158,0.0,5.2,82,0.00,,CLR,0.00,VWS V14.01,2013-05-29 07:26:00,
2013-05-29 02:28:00,71.1,65.2,29.85,ENE,60,3.3,4.1,82,0.00,,CLR,0.00,VWS V14.01,2013-05-29 07:28:00,
2013-05-29 02:30:00,71.1,65.2,29.85,ENE,72,0.0,4.7,82,0.00,,CLR,0.00,VWS V14.01,2013-05-29 07:30:00,
2013-05-29 02:32:00,71.1,65.2,29.85,East,87,3.3,4.1,82,0.00,,CLR,0.00,VWS V14.01,2013-05-29 07:32:00,
2013-05-29 02:34:00,71.1,64.8,29.85,SE,142,3.9,6.4,81,0.00,,CLR,0.00,VWS V14.01,2013-05-29 07:34:00,
2013-05-29 02:36:00,70.9,65.1,29.85,ESE,109,4.4,10.5,82,0.00,,CLR,0.00,VWS V14.01,2013-05-29 07:36:00,
2013-05-29 02:38:00,70.9,65.1,29.85,ESE,114,4.4,6.4,82,0.00,,CLR,0.00,VWS V14.01,2013-05-29 07:38:00,
2013-05-29 02:40:00,71.1,65.2,29.85,ESE,121,0.0,5.2,82,0.00,,CLR,0.00,VWS V14.01,2013-05-29 07:40:00,
2013-05-29 02:42:00,71.1,65.2,29.85,South,171,3.3,7.0,82,0.00,,CLR,0.00,VWS V14.01,2013-05-29 07:42:00,
2013-05-29 02:44:00,71.1,65.2,29.85,South,174,0.0,5.2,82,0.00,,CLR,0.00,VWS V14.01,2013-05-29 07:44:00,
2013-05-29 02:46:00,71.1,65.2,29.85,SE,145,0.0,7.6,82,0.00,,CLR,0.00,VWS V14.01,2013-05-29 07:46:00,
2013-05-29 02:48:00,71.1,65.2,29.85,SE,146,5.0,5.2,82,0.00,,CLR,0.00,VWS V14.01,2013-05-29 07:48:00,
2013-05-29 02:50:00,71.1,65.2,29.85,SE,128,10.0,10.5,82,0.00,,CLR,0.00,VWS V14.01,2013-05-29 07:50:00,
2013-05-29 02:52:00,71.2,65.4,29.85,South,189,3.3,10.5,82,0.00,,CLR,0.00,VWS V14.01,2013-05-29 07:52:00,
2013-05-29 02:54:00,71.2,65.4,29.85,South,174,5.0,8.1,82,0.00,,CLR,0.00,VWS V14.01,2013-05-29 07:54:00,
2013-05-29 02:56:00,71.2,65.4,29.85,South,176,7.2,7.6,82,0.00,,CLR,0.00,VWS V14.01,2013-05-29 07:56:00,
2013-05-29 02:58:00,71.4,65.6,29.85,South,174,6.7,8.1,82,0.00,,CLR,0.00,VWS V14.01,2013-05-29 07:58:00,
2013-05-29 03:00:00,71.4,65.6,29.85,SSW,202,3.3,10.8,82,0.00,,CLR,0.00,VWS V14.01,2013-05-29 08:00:00,
2013-05-29 03:02:00,71.6,65.8,29.85,South,171,4.4,7.6,82,0.00,,CLR,0.00,VWS V14.01,2013-05-29 08:02:00,
2013-05-29 03:04:00,71.8,65.9,29.85,SSW,198,3.9,10.8,82,0.00,,CLR,0.00,VWS V14.01,2013-05-29 08:04:00,
2013-05-29 03:06:00,71.8,65.5,29.85,SW,224,3.3,8.1,81,0.00,,CLR,0.00,VWS V14.01,2013-05-29 08:06:00,
2013-05-29 03:08:00,72.0,65.7,29.85,ESE,123,3.9,11.3,81,0.00,,CLR,0.00,VWS V14.01,2013-05-29 08:08:00,
2013-05-29 03:10:00,72.0,65.7,29.85,SE,128,5.0,9.9,81,0.00,,CLR,0.00,VWS V14.01,2013-05-29 08:10:00,
2013-05-29 03:12:00,72.1,65.3,29.85,South,183,7.2,8.1,79,0.00,,CLR,0.00,VWS V14.01,2013-05-29 08:12:00,
2013-05-29 03:14:00,72.1,65.3,29.85,South,176,3.9,10.5,79,0.00,,CLR,0.00,VWS V14.01,2013-05-29 08:14:00,
2013-05-29 03:16:00,72.1,65.3,29.85,South,191,5.0,8.1,79,0.00,,CLR,0.00,VWS V14.01,2013-05-29 08:16:00,
2013-05-29 03:18:00,72.1,65.3,29.85,SE,139,5.0,10.5,79,0.00,,CLR,0.00,VWS V14.01,2013-05-29 08:18:00,
2013-05-29 03:20:00,72.1,65.3,29.85,SSW,211,3.9,10.5,79,0.00,,CLR,0.00,VWS V14.01,2013-05-29 08:20:00,
2013-05-29 03:22:00,72.1,65.3,29.85,SSE,163,6.1,8.1,79,0.00,,CLR,0.00,VWS V14.01,2013-05-29 08:22:00,
2013-05-29 03:24:00,72.1,65.3,29.85,SSW,210,5.0,11.3,79,0.00,,CLR,0.00,VWS V14.01,2013-05-29 08:24:00,
2013-05-29 03:26:00,72.1,65.3,29.85,SSW,204,3.3,11.9,79,0.00,,CLR,0.00,VWS V14.01,2013-05-29 08:26:00,
2013-05-29 03:28:00,72.1,65.3,29.85,SSE,157,6.7,11.9,79,0.00,,CLR,0.00,VWS V14.01,2013-05-29 08:28:00,
2013-05-29 03:30:00,72.1,65.3,29.85,SSW,207,4.4,9.9,79,0.00,,CLR,0.00,VWS V14.01,2013-05-29 08:30:00,
2013-05-29 03:32:00,72.0,65.2,29.85,South,184,7.8,8.1,79,0.00,,CLR,0.00,VWS V14.01,2013-05-29 08:32:00,
2013-05-29 03:34:00,72.0,65.2,29.85,SE,145,6.7,9.9,79,0.00,,CLR,0.00,VWS V14.01,2013-05-29 08:34:00,
2013-05-29 03:36:00,72.0,65.2,29.85,SSW,198,6.7,9.9,79,0.00,,CLR,0.00,VWS V14.01,2013-05-29 08:36:00,
2013-05-29 03:38:00,72.0,65.2,29.85,South,190,7.8,10.5,79,0.00,,CLR,0.00,VWS V14.01,2013-05-29 08:38:00,
2013-05-29 03:40:00,72.0,65.2,29.85,South,190,7.2,11.3,79,0.00,,CLR,0.00,VWS V14.01,2013-05-29 08:40:00,
2013-05-29 03:42:00,72.0,65.2,29.85,South,177,7.2,10.8,79,0.00,,CLR,0.00,VWS V14.01,2013-05-29 08:42:00,
2013-05-29 03:44:00,71.8,65.5,29.85,South,186,7.2,9.9,81,0.00,,CLR,0.00,VWS V14.01,2013-05-29 08:44:00,
2013-05-29 03:46:00,71.8,65.5,29.85,SSE,164,7.8,9.9,81,0.00,,CLR,0.00,VWS V14.01,2013-05-29 08:46:00,
2013-05-29 03:48:00,71.8,65.5,29.85,South,189,5.0,14.2,81,0.00,,CLR,0.00,VWS V14.01,2013-05-29 08:48:00,
2013-05-29 03:50:00,71.8,65.5,29.85,SSE,156,7.2,9.9,81,0.00,,CLR,0.00,VWS V14.01,2013-05-29 08:50:00,
2013-05-29 03:52:00,72.0,65.7,29.85,SSE,162,6.1,10.8,81,0.00,,CLR,0.00,VWS V14.01,2013-05-29 08:52:00,
2013-05-29 03:54:00,72.0,65.7,29.85,South,169,4.4,8.1,81,0.00,,CLR,0.00,VWS V14.01,2013-05-29 08:54:00,
2013-05-29 03:56:00,72.0,65.7,29.85,ESE,119,6.1,10.5,81,0.00,,CLR,0.00,VWS V14.01,2013-05-29 08:56:00,
2013-05-29 03:58:00,72.0,65.7,29.85,SSW,199,6.7,9.9,81,0.00,,CLR,0.00,VWS V14.01,2013-05-29 08:58:00,
2013-05-29 04:00:00,71.8,65.5,29.85,SSW,204,3.9,9.9,81,0.00,,CLR,0.00,VWS V14.01,2013-05-29 09:00:00,
2013-05-29 04:02:00,71.8,65.5,29.85,SSE,155,3.3,7.6,81,0.00,,CLR,0.00,VWS V14.01,2013-05-29 09:02:00,
2013-05-29 04:04:00,71.8,65.5,29.85,South,169,5.0,7.6,81,0.00,,CLR,0.00,VWS V14.01,2013-05-29 09:04:00,
2013-05-29 04:06:00,71.8,65.5,29.85,SSE,166,3.9,8.7,81,0.00,,CLR,0.00,VWS V14.01,2013-05-29 09:06:00,
2013-05-29 04:08:00,71.8,65.5,29.85,SE,138,3.9,9.9,81,0.00,,CLR,0.00,VWS V14.01,2013-05-29 09:08:00,
2013-05-29 04:10:00,71.8,65.5,29.85,SSW,200,5.0,6.4,81,0.00,,CLR,0.00,VWS V14.01,2013-05-29 09:10:00,
2013-05-29 04:12:00,71.8,65.5,29.85,SSE,150,3.9,10.5,81,0.00,,CLR,0.00,VWS V14.01,2013-05-29 09:12:00,
2013-05-29 04:14:00,71.8,65.5,29.85,East,90,4.4,8.1,81,0.00,,CLR,0.00,VWS V14.01,2013-05-29 09:14:00,
2013-05-29 04:16:00,71.8,65.5,29.85,SSW,213,7.2,8.7,81,0.00,,CLR,0.00,VWS V14.01,2013-05-29 09:16:00,
2013-05-29 04:18:00,71.8,65.5,29.85,SSE,158,5.0,11.3,81,0.00,,CLR,0.00,VWS V14.01,2013-05-29 09:18:00,
2013-05-29 04:20:00,71.8,65.5,29.85,SE,143,5.0,10.8,81,0.00,,CLR,0.00,VWS V14.01,2013-05-29 09:20:00,
2013-05-29 04:22:00,71.8,65.5,29.85,SSE,161,0.0,8.1,81,0.00,,CLR,0.00,VWS V14.01,2013-05-29 09:22:00,
2013-05-29 04:24:00,71.6,65.3,29.85,SSE,149,6.7,7.6,81,0.00,,CLR,0.00,VWS V14.01,2013-05-29 09:24:00,
2013-05-29 04:26:00,71.6,65.3,29.85,SSW,203,5.0,7.6,81,0.00,,CLR,0.00,VWS V14.01,2013-05-29 09:26:00,
2013-05-29 04:28:00,71.6,65.3,29.85,SSE,154,7.8,9.9,81,0.00,,CLR,0.00,VWS V14.01,2013-05-29 09:28:00,
2013-05-29 04:30:00,71.6,65.8,29.85,SE,146,6.7,8.1,82,0.00,,CLR,0.00,VWS V14.01,2013-05-29 09:30:00,
2013-05-29 04:32:00,71.6,65.8,29.85,SSE,167,4.4,7.6,82,0.00,,CLR,0.00,VWS V14.01,2013-05-29 09:32:00,
2013-05-29 04:34:00,71.6,65.8,29.85,SSW,193,4.4,9.9,82,0.00,,CLR,0.00,VWS V14.01,2013-05-29 09:34:00,
2013-05-29 04:36:00,71.6,65.8,29.85,SSW,198,4.4,5.8,82,0.00,,CLR,0.00,VWS V14.01,2013-05-29 09:36:00,
2013-05-29 04:38:00,71.6,65.8,29.85,SE,141,7.2,7.6,82,0.00,,CLR,0.00,VWS V14.01,2013-05-29 09:38:00,
2013-05-29 04:40:00,71.6,65.8,29.85,SSE,164,3.9,7.6,82,0.00,,CLR,0.00,VWS V14.01,2013-05-29 09:40:00,
2013-05-29 04:42:00,71.6,65.8,29.85,SE,141,4.4,8.1,82,0.00,,CLR,0.00,VWS V14.01,2013-05-29 09:42:00,
2013-05-29 04:44:00,71.6,65.8,29.85,SSW,211,7.8,10.5,82,0.00,,CLR,0.00,VWS V14.01,2013-05-29 09:44:00,
2013-05-29 04:46:00,71.6,65.8,29.85,South,169,4.4,8.1,82,0.00,,CLR,0.00,VWS V14.01,2013-05-29 09:46:00,
2013-05-29 04:48:00,71.6,65.8,29.85,South,189,7.8,10.5,82,0.00,,CLR,0.00,VWS V14.01,2013-05-29 09:48:00,
2013-05-29 04:50:00,71.6,65.8,29.85,SSW,198,3.3,10.8,82,0.00,,CLR,0.00,VWS V14.01,2013-05-29 09:50:00,
2013-05-29 04:52:00,71.6,65.8,29.85,SW,229,5.0,7.6,82,0.00,,CLR,0.00,VWS V14.01,2013-05-29 09:52:00,
2013-05-29 04:54:00,71.6,65.8,29.85,SW,233,4.4,7.6,82,0.00,,CLR,0.00,VWS V14.01,2013-05-29 09:54:00,
2013-05-29 04:56:00,71.4,66.1,29.85,SSW,202,4.4,9.9,83,0.00,,CLR,0.00,VWS V14.01,2013-05-29 09:56:00,
2013-05-29 04:58:00,71.4,66.1,29.85,South,190,5.0,7.6,83,0.00,,CLR,0.00,VWS V14.01,2013-05-29 09:58:00,
2013-05-29 05:00:00,71.4,66.1,29.85,SW,220,6.7,7.0,83,0.00,,CLR,0.00,VWS V14.01,2013-05-29 10:00:00,
2013-05-29 05:02:00,71.4,66.1,29.85,South,183,4.4,7.0,83,0.00,,CLR,0.00,VWS V14.01,2013-05-29 10:02:00,
2013-05-29 05:04:00,71.2,65.9,29.85,South,191,6.1,10.5,83,0.00,,CLR,0.00,VWS V14.01,2013-05-29 10:04:00,
2013-05-29 05:06:00,71.2,65.9,29.85,SW,224,6.7,8.1,83,0.00,,CLR,0.00,VWS V14.01,2013-05-29 10:06:00,
2013-05-29 05:08:00,71.2,65.9,29.85,SW,231,6.7,7.6,83,0.00,,CLR,0.00,VWS V14.01,2013-05-29 10:08:00,
2013-05-29 05:10:00,71.2,65.9,29.85,South,189,7.8,8.1,83,0.00,,CLR,0.00,VWS V14.01,2013-05-29 10:10:00,
2013-05-29 05:12:00,71.1,65.7,29.88,SW,221,3.3,8.1,83,0.00,,CLR,0.00,VWS V14.01,2013-05-29 10:12:00,
2013-05-29 05:14:00,71.1,65.7,29.88,South,189,4.4,8.1,83,0.00,,CLR,0.00,VWS V14.01,2013-05-29 10:14:00,
2013-05-29 05:16:00,71.1,66.2,29.88,SSW,202,3.3,8.1,84,0.00,,CLR,0.00,VWS V14.01,2013-05-29 10:16:00,
2013-05-29 05:18:00,71.1,66.2,29.88,SSW,213,3.9,8.1,84,0.00,,CLR,0.00,VWS V14.01,2013-05-29 10:18:00,
2013-05-29 05:20:00,71.1,66.2,29.88,South,181,6.1,6.4,84,0.00,,CLR,0.00,VWS V14.01,2013-05-29 10:20:00,
2013-05-29 05:22:00,71.1,66.2,29.88,SSW,206,5.0,10.8,84,0.00,,CLR,0.00,VWS V14.01,2013-05-29 10:22:00,
2013-05-29 05:23:00,71.1,66.2,29.88,SW,222,4.4,6.4,84,0.00,,CLR,0.00,VWS V14.01,2013-05-29 10:23:00,
2013-05-29 05:24:00,70.9,66.0,29.88,South,187,4.4,6.4,84,0.00,,CLR,0.00,VWS V14.01,2013-05-29 10:24:00,
2013-05-29 05:26:00,70.9,66.0,29.88,SSW,205,3.3,5.2,84,0.00,,CLR,0.00,VWS V14.01,2013-05-29 10:26:00,
2013-05-29 05:28:00,70.9,66.0,29.88,South,183,3.3,7.0,84,0.00,,CLR,0.00,VWS V14.01,2013-05-29 10:28:00,
2013-05-29 05:30:00,70.9,66.0,29.88,SSW,199,7.8,8.7,84,0.00,,CLR,0.00,VWS V14.01,2013-05-29 10:30:00,
2013-05-29 05:32:00,70.9,66.4,29.88,South,178,3.9,8.1,86,0.00,,CLR,0.00,VWS V14.01,2013-05-29 10:32:00,
2013-05-29 05:33:00,70.9,66.4,29.88,SE,142,3.9,6.4,86,0.00,,CLR,0.00,VWS V14.01,2013-05-29 10:33:00,
2013-05-29 05:34:00,70.9,66.4,29.88,SSW,202,7.2,7.6,86,0.00,,CLR,0.00,VWS V14.01,2013-05-29 10:34:00,
2013-05-29 05:36:00,70.9,66.4,29.88,South,182,5.0,7.6,86,0.00,,CLR,0.00,VWS V14.01,2013-05-29 10:36:00,
2013-05-29 05:38:00,70.7,66.2,29.88,South,171,7.2,11.3,86,0.00,,CLR,0.00,VWS V14.01,2013-05-29 10:38:00,
2013-05-29 05:40:00,70.7,66.2,29.88,SSE,156,3.9,7.6,86,0.00,,CLR,0.00,VWS V14.01,2013-05-29 10:40:00,
2013-05-29 05:42:00,70.7,66.2,29.88,South,186,6.1,8.1,86,0.00,,CLR,0.00,VWS V14.01,2013-05-29 10:42:00,
2013-05-29 05:43:00,70.7,66.2,29.88,SSE,150,3.3,8.1,86,0.00,,CLR,0.00,VWS V14.01,2013-05-29 10:43:00,
2013-05-29 05:44:00,70.7,66.2,29.88,SE,128,4.4,8.1,86,0.00,,CLR,0.00,VWS V14.01,2013-05-29 10:44:00,
2013-05-29 05:46:00,70.7,66.2,29.88,SSW,196,7.8,9.9,86,0.00,,CLR,0.00,VWS V14.01,2013-05-29 10:46:00,
2013-05-29 05:48:00,70.7,66.2,29.88,SW,217,5.0,8.1,86,0.00,,CLR,0.00,VWS V14.01,2013-05-29 10:48:00,
2013-05-29 05:49:00,70.7,66.7,29.88,West,274,4.4,8.1,87,0.00,,CLR,0.00,VWS V14.01,2013-05-29 10:49:00,
2013-05-29 05:50:00,70.7,66.7,29.88,SSW,204,4.4,9.3,87,0.00,,CLR,0.00,VWS V14.01,2013-05-29 10:50:00,
2013-05-29 05:52:00,70.5,66.5,29.88,SSW,203,7.8,11.3,87,0.00,,CLR,0.00,VWS V14.01,2013-05-29 10:52:00,
2013-05-29 05:54:00,70.5,66.5,29.88,SW,233,3.3,13.1,87,0.00,,CLR,0.00,VWS V14.01,2013-05-29 10:54:00,
2013-05-29 05:56:00,70.5,66.5,29.88,SSW,200,3.3,7.0,87,0.00,,CLR,0.00,VWS V14.01,2013-05-29 10:56:00,
2013-05-29 05:58:00,70.5,66.5,29.88,South,173,6.7,8.1,87,0.00,,CLR,0.00,VWS V14.01,2013-05-29 10:58:00,
2013-05-29 05:59:00,70.5,66.5,29.88,SE,133,10.3,10.8,87,0.00,,CLR,0.00,VWS V14.01,2013-05-29 10:59:00,
2013-05-29 06:00:00,70.5,66.5,29.88,SSW,192,6.7,10.8,87,0.00,,CLR,0.00,VWS V14.01,2013-05-29 11:00:00,
2013-05-29 06:02:00,70.5,66.5,29.88,SSE,147,8.9,9.3,87,0.00,,CLR,0.00,VWS V14.01,2013-05-29 11:02:00,
2013-05-29 06:04:00,70.5,66.5,29.88,SSE,162,7.8,13.1,87,0.00,,CLR,0.00,VWS V14.01,2013-05-29 11:04:00,
2013-05-29 06:06:00,70.5,66.5,29.88,SSE,165,6.7,10.5,87,0.00,,CLR,0.00,VWS V14.01,2013-05-29 11:06:00,
2013-05-29 06:08:00,70.5,66.5,29.88,SSW,194,7.8,10.5,87,0.00,,CLR,0.00,VWS V14.01,2013-05-29 11:08:00,
2013-05-29 06:09:00,70.5,66.5,29.88,South,176,9.4,10.5,87,0.00,,CLR,0.00,VWS V14.01,2013-05-29 11:09:00,
2013-05-29 06:10:00,70.5,66.5,29.88,South,180,4.4,10.5,87,0.00,,CLR,0.00,VWS V14.01,2013-05-29 11:10:00,
2013-05-29 06:12:00,70.7,66.2,29.88,SSE,163,3.9,13.1,86,0.00,,CLR,0.00,VWS V14.01,2013-05-29 11:12:00,
2013-05-29 06:14:00,70.7,66.2,29.88,South,170,6.7,10.8,86,0.00,,CLR,0.00,VWS V14.01,2013-05-29 11:14:00,
2013-05-29 06:16:00,70.7,66.2,29.88,SSW,202,7.8,8.1,86,0.00,,CLR,0.00,VWS V14.01,2013-05-29 11:16:00,
2013-05-29 06:18:00,70.7,66.2,29.88,South,181,7.2,9.9,86,0.00,,CLR,0.00,VWS V14.01,2013-05-29 11:18:00,
2013-05-29 06:20:00,70.7,66.2,29.88,SSE,147,5.0,11.3,86,0.00,,CLR,0.00,VWS V14.01,2013-05-29 11:20:00,
2013-05-29 06:22:00,70.5,66.1,29.88,South,186,2.8,8.1,86,0.00,,CLR,0.00,VWS V14.01,2013-05-29 11:22:00,
2013-05-29 06:24:00,70.5,66.1,29.88,SE,137,5.0,8.1,86,0.00,,CLR,0.00,VWS V14.01,2013-05-29 11:24:00,
2013-05-29 06:25:00,70.5,66.1,29.88,ESE,105,7.8,8.1,86,0.00,,CLR,0.00,VWS V14.01,2013-05-29 11:25:00,
2013-05-29 06:26:00,70.5,66.1,29.88,SSW,205,5.0,8.1,86,0.00,,CLR,0.00,VWS V14.01,2013-05-29 11:26:00,
2013-05-29 06:28:00,70.5,66.1,29.88,SE,146,3.3,8.1,86,0.00,,CLR,0.00,VWS V14.01,2013-05-29 11:28:00,
2013-05-29 06:30:00,70.5,66.1,29.88,SSE,160,4.4,8.1,86,0.00,,CLR,0.00,VWS V14.01,2013-05-29 11:30:00,
2013-05-29 06:32:00,70.5,66.1,29.88,SSW,208,4.4,11.3,86,0.00,,CLR,0.00,VWS V14.01,2013-05-29 11:32:00,
2013-05-29 06:34:00,70.3,65.9,29.88,South,181,6.1,7.6,86,0.00,,CLR,0.00,VWS V14.01,2013-05-29 11:34:00,
2013-05-29 06:35:00,70.3,65.9,29.88,SW,224,6.7,7.6,86,0.00,,CLR,0.00,VWS V14.01,2013-05-29 11:35:00,
2013-05-29 06:36:00,70.3,65.9,29.88,SSE,147,3.9,7.6,86,0.00,,CLR,0.00,VWS V14.01,2013-05-29 11:36:00,
2013-05-29 06:38:00,70.3,65.9,29.88,SSW,194,7.2,7.6,86,0.00,,CLR,0.00,VWS V14.01,2013-05-29 11:38:00,
2013-05-29 06:40:00,70.3,65.9,29.88,SSW,203,6.1,10.5,86,0.00,,CLR,0.00,VWS V14.01,2013-05-29 11:40:00,
2013-05-29 06:42:00,70.3,65.9,29.88,SSE,164,6.1,10.5,86,0.00,,CLR,0.00,VWS V14.01,2013-05-29 11:42:00,
2013-05-29 06:44:00,70.5,66.1,29.88,SSW,203,3.9,7.0,86,0.00,,CLR,0.00,VWS V14.01,2013-05-29 11:44:00,
2013-05-29 06:45:00,70.5,66.1,29.88,South,175,6.1,7.0,86,0.00,,CLR,0.00,VWS V14.01,2013-05-29 11:45:00,
2013-05-29 06:46:00,70.5,66.1,29.88,SSE,167,0.0,7.0,86,0.00,,CLR,0.00,VWS V14.01,2013-05-29 11:46:00,
2013-05-29 06:48:00,70.5,66.1,29.88,South,176,0.0,7.0,86,0.00,,CLR,0.00,VWS V14.01,2013-05-29 11:48:00,
2013-05-29 06:50:00,70.5,66.1,29.88,SE,140,4.4,7.6,86,0.00,,CLR,0.00,VWS V14.01,2013-05-29 11:50:00,
2013-05-29 06:52:00,70.5,66.1,29.88,South,171,3.9,10.5,86,0.00,,CLR,0.00,VWS V14.01,2013-05-29 11:52:00,
2013-05-29 06:54:00,70.5,66.5,29.88,SSE,162,9.4,9.9,87,0.00,,CLR,0.00,VWS V14.01,2013-05-29 11:54:00,
2013-05-29 06:55:00,70.5,66.5,29.88,SSE,148,3.9,9.9,87,0.00,,CLR,0.00,VWS V14.01,2013-05-29 11:55:00,
2013-05-29 06:56:00,70.5,66.5,29.88,South,178,10.0,13.1,87,0.00,,CLR,0.00,VWS V14.01,2013-05-29 11:56:00,
2013-05-29 06:58:00,70.7,66.2,29.88,South,182,6.7,13.1,86,0.00,,CLR,0.00,VWS V14.01,2013-05-29 11:58:00,
2013-05-29 07:00:00,70.7,66.2,29.88,SE,145,0.0,9.9,86,0.00,,CLR,0.00,VWS V14.01,2013-05-29 12:00:00,
2013-05-29 07:02:00,70.9,66.4,29.88,NW,326,0.0,5.2,86,0.00,,CLR,0.00,VWS V14.01,2013-05-29 12:02:00,
2013-05-29 07:04:00,70.9,66.4,29.88,SSW,203,7.2,11.3,86,0.00,,CLR,0.00,VWS V14.01,2013-05-29 12:04:00,
2013-05-29 07:05:00,70.9,66.4,29.88,SSE,152,7.8,10.5,86,0.00,,CLR,0.00,VWS V14.01,2013-05-29 12:05:00,
2013-05-29 07:06:00,70.9,66.4,29.88,South,173,0.0,10.5,86,0.00,,CLR,0.00,VWS V14.01,2013-05-29 12:06:00,
2013-05-29 07:08:00,71.1,66.6,29.88,SSW,199,9.4,11.3,86,0.00,,CLR,0.00,VWS V14.01,2013-05-29 12:08:00,
2013-05-29 07:10:00,71.2,66.8,29.88,South,181,0.0,11.3,86,0.00,,CLR,0.00,VWS V14.01,2013-05-29 12:10:00,
2013-05-29 07:12:00,71.2,66.3,29.88,South,189,4.4,13.1,84,0.00,,CLR,0.00,VWS V14.01,2013-05-29 12:12:00,
2013-05-29 07:14:00,71.4,66.5,29.88,SSE,157,7.2,10.5,84,0.00,,CLR,0.00,VWS V14.01,2013-05-29 12:14:00,
2013-05-29 07:15:00,71.4,66.5,29.88,SSE,147,7.2,7.6,84,0.00,,CLR,0.00,VWS V14.01,2013-05-29 12:15:00,
2013-05-29 07:16:00,71.4,66.5,29.88,SSE,164,6.7,11.3,84,0.00,,CLR,0.00,VWS V14.01,2013-05-29 12:16:00,
2013-05-29 07:18:00,71.6,66.2,29.88,South,189,5.0,11.3,83,0.00,,CLR,0.00,VWS V14.01,2013-05-29 12:18:00,
2013-05-29 07:20:00,71.6,66.2,29.88,SE,141,6.7,13.1,83,0.00,,CLR,0.00,VWS V14.01,2013-05-29 12:20:00,
2013-05-29 07:22:00,71.6,66.2,29.88,SSW,212,4.4,8.1,83,0.00,,CLR,0.00,VWS V14.01,2013-05-29 12:22:00,
2013-05-29 07:24:00,71.6,66.2,29.88,SSE,154,4.4,8.1,83,0.00,,CLR,0.00,VWS V14.01,2013-05-29 12:24:00,
2013-05-29 07:25:00,71.6,65.8,29.88,SSW,194,9.4,10.8,82,0.00,,CLR,0.00,VWS V14.01,2013-05-29 12:25:00,
2013-05-29 07:26:00,71.6,65.8,29.88,SSE,151,4.4,10.8,82,0.00,,CLR,0.00,VWS V14.01,2013-05-29 12:26:00,
2013-05-29 07:28:00,71.6,65.8,29.88,SW,223,6.7,10.8,82,0.00,,CLR,0.00,VWS V14.01,2013-05-29 12:28:00,
2013-05-29 07:30:00,71.6,65.8,29.88,SSW,199,10.0,12.5,82,0.00,,CLR,0.00,VWS V14.01,2013-05-29 12:30:00,
2013-05-29 07:32:00,71.6,65.8,29.88,South,191,6.7,12.5,82,0.00,,CLR,0.00,VWS V14.01,2013-05-29 12:32:00,
2013-05-29 07:34:00,71.6,65.3,29.88,South,191,7.8,10.5,81,0.00,,CLR,0.00,VWS V14.01,2013-05-29 12:34:00,
2013-05-29 07:35:00,71.6,65.3,29.88,SSE,155,4.4,9.9,81,0.00,,CLR,0.00,VWS V14.01,2013-05-29 12:35:00,
2013-05-29 07:36:00,71.6,65.3,29.88,SSE,149,6.7,9.9,81,0.00,,CLR,0.00,VWS V14.01,2013-05-29 12:36:00,
2013-05-29 07:38:00,71.6,65.3,29.88,SSE,165,5.0,8.1,81,0.00,,CLR,0.00,VWS V14.01,2013-05-29 12:38:00,
2013-05-29 07:40:00,71.6,65.8,29.88,SSE,163,5.0,9.9,82,0.00,,CLR,0.00,VWS V14.01,2013-05-29 12:40:00,
2013-05-29 07:42:00,71.6,65.3,29.88,South,171,15.8,16.6,81,0.00,,CLR,0.00,VWS V14.01,2013-05-29 12:42:00,
2013-05-29 07:44:00,71.6,65.3,29.88,SSE,147,6.7,16.6,81,0.00,,CLR,0.00,VWS V14.01,2013-05-29 12:44:00,
2013-05-29 07:45:00,71.6,65.3,29.88,SSE,157,6.1,13.1,81,0.00,,CLR,0.00,VWS V14.01,2013-05-29 12:45:00,
2013-05-29 07:46:00,71.6,65.3,29.88,SSE,147,5.0,13.1,81,0.00,,CLR,0.00,VWS V14.01,2013-05-29 12:46:00,
2013-05-29 07:48:00,71.6,65.8,29.88,South,187,3.3,10.5,82,0.00,,CLR,0.00,VWS V14.01,2013-05-29 12:48:00,
2013-05-29 07:50:00,71.6,65.8,29.88,South,190,6.1,11.3,82,0.00,,CLR,0.00,VWS V14.01,2013-05-29 12:50:00,
2013-05-29 07:52:00,71.6,65.8,29.88,SE,140,5.0,11.3,82,0.00,,CLR,0.00,VWS V14.01,2013-05-29 12:52:00,
2013-05-29 07:54:00,71.6,65.8,29.88,SSE,157,3.9,10.5,82,0.00,,CLR,0.00,VWS V14.01,2013-05-29 12:54:00,
2013-05-29 07:55:00,71.8,65.9,29.88,SSE,158,7.2,10.5,82,0.00,,CLR,0.00,VWS V14.01,2013-05-29 12:55:00,
2013-05-29 07:56:00,71.8,65.9,29.88,SSW,207,6.7,10.5,82,0.00,,CLR,0.00,VWS V14.01,2013-05-29 12:56:00,
2013-05-29 07:58:00,71.8,65.9,29.88,SE,143,7.2,8.1,82,0.00,,CLR,0.00,VWS V14.01,2013-05-29 12:58:00,
2013-05-29 08:00:00,72.0,66.1,29.88,SSW,198,7.8,13.7,82,0.00,,CLR,0.00,VWS V14.01,2013-05-29 13:00:00,
2013-05-29 08:02:00,72.0,66.1,29.88,SE,137,6.7,10.5,82,0.00,,CLR,0.00,VWS V14.01,2013-05-29 13:02:00,
2013-05-29 08:04:00,72.1,66.3,29.88,SSW,202,16.4,17.2,82,0.00,,CLR,0.00,VWS V14.01,2013-05-29 13:04:00,
2013-05-29 08:05:00,72.1,65.8,29.88,South,173,10.3,17.2,81,0.00,,CLR,0.00,VWS V14.01,2013-05-29 13:05:00,
2013-05-29 08:06:00,72.1,65.8,29.88,SSE,165,6.7,17.2,81,0.00,,CLR,0.00,VWS V14.01,2013-05-29 13:06:00,
2013-05-29 08:08:00,72.3,66.0,29.88,South,189,7.2,11.9,81,0.00,,CLR,0.00,VWS V14.01,2013-05-29 13:08:00,
2013-05-29 08:10:00,72.3,66.0,29.88,SE,145,6.1,11.3,81,0.00,,CLR,0.00,VWS V14.01,2013-05-29 13:10:00,
2013-05-29 08:11:00,72.5,66.2,29.88,ESE,106,4.4,9.3,81,0.00,,CLR,0.00,VWS V14.01,2013-05-29 13:11:00,
2013-05-29 08:12:00,72.5,66.2,29.88,SE,138,4.4,9.3,81,0.00,,CLR,0.00,VWS V14.01,2013-05-29 13:12:00,
2013-05-29 08:14:00,72.7,66.3,29.88,SSW,202,4.4,7.6,81,0.00,,CLR,0.00,VWS V14.01,2013-05-29 13:14:00,
2013-05-29 08:16:00,72.7,65.9,29.88,SSE,168,9.4,13.1,79,0.00,,CLR,0.00,VWS V14.01,2013-05-29 13:16:00,
2013-05-29 08:18:00,72.7,65.4,29.88,South,176,13.6,18.9,78,0.00,,CLR,0.00,VWS V14.01,2013-05-29 13:18:00,
2013-05-29 08:20:00,72.7,65.4,29.88,SSW,197,13.0,14.8,78,0.00,,CLR,0.00,VWS V14.01,2013-05-29 13:20:00,
2013-05-29 08:21:00,72.7,65.4,29.88,ESE,123,3.3,14.8,78,0.00,,CLR,0.00,VWS V14.01,2013-05-29 13:21:00,
2013-05-29 08:22:00,72.5,65.7,29.88,South,179,13.6,14.8,79,0.00,,CLR,0.00,VWS V14.01,2013-05-29 13:22:00,
2013-05-29 08:24:00,72.5,65.7,29.88,South,187,7.8,17.2,79,0.00,,CLR,0.00,VWS V14.01,2013-05-29 13:24:00,
2013-05-29 08:26:00,72.5,65.7,29.88,SSE,152,3.3,13.7,79,0.00,,CLR,0.00,VWS V14.01,2013-05-29 13:26:00,
2013-05-29 08:28:00,72.7,65.9,29.88,SSW,192,12.5,13.1,79,0.00,,CLR,0.00,VWS V14.01,2013-05-29 13:28:00,
2013-05-29 08:30:00,72.9,66.1,29.88,SSE,147,6.7,17.2,79,0.00,,CLR,0.00,VWS V14.01,2013-05-29 13:30:00,
2013-05-29 08:31:00,72.9,66.1,29.88,SSE,149,4.4,17.2,79,0.00,,CLR,0.00,VWS V14.01,2013-05-29 13:31:00,
2013-05-29 08:32:00,72.9,66.1,29.88,SSE,161,6.7,16.0,79,0.00,,CLR,0.00,VWS V14.01,2013-05-29 13:32:00,
2013-05-29 08:34:00,73.0,66.2,29.88,SE,139,4.4,12.5,79,0.00,,CLR,0.00,VWS V14.01,2013-05-29 13:34:00,
2013-05-29 08:36:00,73.2,65.9,29.88,South,178,12.5,13.1,78,0.00,,CLR,0.00,VWS V14.01,2013-05-29 13:36:00,
2013-05-29 08:38:00,73.2,65.9,29.88,SSW,212,4.4,13.1,78,0.00,,CLR,0.00,VWS V14.01,2013-05-29 13:38:00,
2013-05-29 08:40:00,73.4,65.6,29.88,SSE,150,10.0,13.7,77,0.00,,CLR,0.00,VWS V14.01,2013-05-29 13:40:00,
2013-05-29 08:41:00,73.4,65.1,29.88,South,183,7.2,13.7,75,0.00,,CLR,0.00,VWS V14.01,2013-05-29 13:41:00,
2013-05-29 08:42:00,73.4,65.6,29.88,West,275,0.0,13.7,77,0.00,,CLR,0.00,VWS V14.01,2013-05-29 13:42:00,
2013-05-29 08:44:00,73.6,65.8,29.88,South,169,9.4,12.5,77,0.00,,CLR,0.00,VWS V14.01,2013-05-29 13:44:00,
2013-05-29 08:46:00,73.6,65.8,29.88,SW,228,5.0,12.5,77,0.00,,CLR,0.00,VWS V14.01,2013-05-29 13:46:00,
2013-05-29 08:48:00,73.8,65.4,29.88,SSW,199,10.3,14.2,75,0.00,,CLR,0.00,VWS V14.01,2013-05-29 13:48:00,
2013-05-29 08:50:00,73.8,65.4,29.88,SE,129,13.0,17.2,75,0.00,,CLR,0.00,VWS V14.01,2013-05-29 13:50:00,
2013-05-29 08:51:00,73.6,64.8,29.88,SSE,166,7.2,17.2,74,0.00,,CLR,0.00,VWS V14.01,2013-05-29 13:51:00,
2013-05-29 08:52:00,73.8,65.4,29.88,South,184,16.9,20.1,75,0.00,,CLR,0.00,VWS V14.01,2013-05-29 13:52:00,
2013-05-29 08:54:00,73.8,65.4,29.88,SW,231,4.4,20.1,75,0.00,,CLR,0.00,VWS V14.01,2013-05-29 13:54:00,
2013-05-29 08:56:00,73.9,65.6,29.88,South,180,10.0,10.5,75,0.00,,CLR,0.00,VWS V14.01,2013-05-29 13:56:00,
2013-05-29 08:58:00,73.9,65.6,29.88,South,173,12.5,21.2,75,0.00,,CLR,0.00,VWS V14.01,2013-05-29 13:58:00,
2013-05-29 09:00:00,74.1,65.3,29.88,South,174,15.8,22.1,74,0.00,,CLR,0.00,VWS V14.01,2013-05-29 14:00:00,
2013-05-29 09:01:00,74.1,65.3,29.88,SE,145,10.0,22.7,74,0.00,,CLR,0.00,VWS V14.01,2013-05-29 14:01:00,
2013-05-29 09:02:00,74.1,64.8,29.88,South,180,7.8,22.7,73,0.00,,CLR,0.00,VWS V14.01,2013-05-29 14:02:00,
2013-05-29 09:04:00,74.1,64.8,29.88,South,185,14.1,14.8,73,0.00,,CLR,0.00,VWS V14.01,2013-05-29 14:04:00,
2013-05-29 09:06:00,74.1,64.8,29.88,SSE,158,15.3,16.0,73,0.00,,CLR,0.00,VWS V14.01,2013-05-29 14:06:00,
2013-05-29 09:08:00,74.1,64.8,29.88,SSW,193,10.3,16.0,73,0.00,,CLR,0.00,VWS V14.01,2013-05-29 14:08:00,
2013-05-29 09:10:00,74.1,65.3,29.88,SSE,163,11.9,13.7,74,0.00,,CLR,0.00,VWS V14.01,2013-05-29 14:10:00,
2013-05-29 09:11:00,74.1,65.3,29.88,South,175,7.2,13.7,74,0.00,,CLR,0.00,VWS V14.01,2013-05-29 14:11:00,
2013-05-29 09:12:00,74.3,66.0,29.88,SSE,163,10.0,11.9,75,0.00,,CLR,0.00,VWS V14.01,2013-05-29 14:12:00,
2013-05-29 09:14:00,74.5,66.1,29.88,South,186,7.2,13.7,75,0.00,,CLR,0.00,VWS V14.01,2013-05-29 14:14:00,
2013-05-29 09:16:00,74.7,66.3,29.88,SE,133,8.9,16.6,75,0.00,,CLR,0.00,VWS V14.01,2013-05-29 14:16:00,
2013-05-29 09:18:00,74.7,65.3,29.88,South,177,12.5,17.2,73,0.00,,CLR,0.00,VWS V14.01,2013-05-29 14:18:00,
2013-05-29 09:20:00,74.7,64.2,29.88,South,181,15.8,17.2,70,0.00,,CLR,0.00,VWS V14.01,2013-05-29 14:20:00,
2013-05-29 09:21:00,74.7,64.8,29.88,SSW,205,9.4,16.6,71,0.00,,CLR,0.00,VWS V14.01,2013-05-29 14:21:00,
2013-05-29 09:22:00,74.7,65.3,29.88,South,176,12.5,16.6,73,0.00,,CLR,0.00,VWS V14.01,2013-05-29 14:22:00,
2013-05-29 09:24:00,74.8,66.0,29.88,South,181,12.5,14.8,74,0.00,,CLR,0.00,VWS V14.01,2013-05-29 14:24:00,
2013-05-29 09:26:00,74.8,65.4,29.88,South,184,16.4,20.1,73,0.00,,CLR,0.00,VWS V14.01,2013-05-29 14:26:00,
2013-05-29 09:28:00,74.8,64.9,29.88,SW,226,7.2,17.2,71,0.00,,CLR,0.00,VWS V14.01,2013-05-29 14:28:00,
2013-05-29 09:30:00,75.0,65.1,29.88,SSE,156,10.3,19.5,71,0.00,,CLR,0.00,VWS V14.01,2013-05-29 14:30:00,
2013-05-29 09:31:00,75.0,65.6,29.88,SW,216,7.2,13.1,73,0.00,,CLR,0.00,VWS V14.01,2013-05-29 14:31:00,
2013-05-29 09:32:00,75.0,65.6,29.88,SW,214,7.2,11.3,73,0.00,,CLR,0.00,VWS V14.01,2013-05-29 14:32:00,
2013-05-29 09:34:00,75.2,64.7,29.88,South,176,7.8,20.6,70,0.00,,CLR,0.00,VWS V14.01,2013-05-29 14:34:00,
2013-05-29 09:36:00,75.2,64.2,29.88,SSW,197,10.8,16.6,69,0.00,,CLR,0.00,VWS V14.01,2013-05-29 14:36:00,
2013-05-29 09:38:00,75.2,64.7,29.88,South,170,6.1,16.6,70,0.00,,CLR,0.00,VWS V14.01,2013-05-29 14:38:00,
2013-05-29 09:40:00,75.2,64.2,29.88,SSW,203,16.4,17.2,69,0.00,,CLR,0.00,VWS V14.01,2013-05-29 14:40:00,
2013-05-29 09:41:00,75.0,64.0,29.88,SSE,155,5.0,17.2,69,0.00,,BKN027,0.00,VWS V14.01,2013-05-29 14:41:00,
2013-05-29 09:42:00,75.0,64.6,29.88,SW,234,10.8,17.2,70,0.00,,CLR,0.00,VWS V14.01,2013-05-29 14:42:00,
2013-05-29 09:44:00,74.8,64.4,29.88,SSE,165,8.3,11.3,70,0.00,,CLR,0.00,VWS V14.01,2013-05-29 14:44:00,
2013-05-29 09:46:00,74.7,64.8,29.88,SSW,202,10.0,18.3,71,0.00,,BKN027,0.00,VWS V14.01,2013-05-29 14:46:00,
2013-05-29 09:48:00,74.7,63.7,29.88,SW,229,13.0,14.2,69,0.00,,CLR,0.00,VWS V14.01,2013-05-29 14:48:00,
2013-05-29 09:50:00,74.5,64.1,29.88,SW,215,7.8,14.2,70,0.00,,CLR,0.00,VWS V14.01,2013-05-29 14:50:00,
2013-05-29 09:51:00,74.5,64.6,29.88,ESE,110,3.3,10.8,71,0.00,,BKN027,0.00,VWS V14.01,2013-05-29 14:51:00,
2013-05-29 09:52:00,74.5,64.6,29.88,South,181,5.0,10.8,71,0.00,,CLR,0.00,VWS V14.01,2013-05-29 14:52:00,
2013-05-29 09:54:00,74.7,65.3,29.88,SSW,207,7.8,13.7,73,0.00,,CLR,0.00,VWS V14.01,2013-05-29 14:54:00,
2013-05-29 09:56:00,74.8,64.9,29.88,WSW,242,10.0,22.1,71,0.00,,BKN027,0.00,VWS V14.01,2013-05-29 14:56:00,
2013-05-29 09:58:00,74.8,64.9,29.88,South,184,9.4,17.2,71,0.00,,CLR,0.00,VWS V14.01,2013-05-29 14:58:00,
2013-05-29 10:00:00,75.2,65.8,29.88,SSW,211,4.4,11.9,73,0.00,,CLR,0.00,VWS V14.01,2013-05-29 15:00:00,
2013-05-29 10:01:00,75.2,64.7,29.88,SSW,195,13.0,16.6,70,0.00,,OVC034,0.00,VWS V14.01,2013-05-29 15:01:00,
2013-05-29 10:02:00,75.2,64.7,29.88,West,262,16.4,17.2,70,0.00,,CLR,0.00,VWS V14.01,2013-05-29 15:02:00,
2013-05-29 10:04:00,75.4,64.4,29.88,SSW,195,10.8,17.2,69,0.00,,CLR,0.00,VWS V14.01,2013-05-29 15:04:00,
2013-05-29 10:06:00,75.4,64.9,29.88,South,187,11.9,16.6,70,0.00,,OVC034,0.00,VWS V14.01,2013-05-29 15:06:00,
2013-05-29 10:08:00,75.6,65.1,29.88,South,180,10.3,12.5,70,0.00,,CLR,0.00,VWS V14.01,2013-05-29 15:08:00,
2013-05-29 10:10:00,75.6,64.5,29.88,South,190,19.1,22.7,69,0.00,,CLR,0.00,VWS V14.01,2013-05-29 15:10:00,
2013-05-29 10:11:00,75.7,64.7,29.88,SE,124,4.4,22.7,69,0.00,,OVC034,0.00,VWS V14.01,2013-05-29 15:11:00,
2013-05-29 10:12:00,75.7,64.7,29.88,SSW,198,7.8,20.1,69,0.00,,CLR,0.00,VWS V14.01,2013-05-29 15:12:00,
2013-05-29 10:14:00,75.7,64.2,29.88,SSE,156,12.5,18.9,67,0.00,,CLR,0.00,VWS V14.01,2013-05-29 15:14:00,
2013-05-29 10:16:00,75.7,64.2,29.88,SSW,194,9.4,18.3,67,0.00,,OVC034,0.00,VWS V14.01,2013-05-29 15:16:00,
2013-05-29 10:18:00,75.7,64.2,29.88,SSE,164,10.3,16.0,67,0.00,,CLR,0.00,VWS V14.01,2013-05-29 15:18:00,
2013-05-29 10:20:00,75.7,64.2,29.88,South,180,13.6,20.1,67,0.00,,CLR,0.00,VWS V14.01,2013-05-29 15:20:00,
2013-05-29 10:21:00,75.7,64.2,29.88,SSW,194,10.8,20.1,67,0.00,,BKN034,0.00,VWS V14.01,2013-05-29 15:21:00,
2013-05-29 10:22:00,75.7,64.2,29.88,SSW,194,13.6,19.5,67,0.00,,CLR,0.00,VWS V14.01,2013-05-29 15:22:00,
2013-05-29 10:24:00,75.7,64.2,29.88,SW,216,8.3,22.1,67,0.00,,CLR,0.00,VWS V14.01,2013-05-29 15:24:00,
2013-05-29 10:26:00,75.7,64.7,29.88,SE,146,7.8,11.3,69,0.00,,BKN034,0.00,VWS V14.01,2013-05-29 15:26:00,
2013-05-29 10:28:00,75.7,65.8,29.88,South,185,6.7,14.2,71,0.00,,CLR,0.00,VWS V14.01,2013-05-29 15:28:00,
2013-05-29 10:30:00,75.9,64.9,29.88,SSE,165,16.4,18.9,69,0.00,,CLR,0.00,VWS V14.01,2013-05-29 15:30:00,
2013-05-29 10:31:00,76.1,63.9,29.88,SSE,161,16.4,18.9,66,0.00,,BKN034,0.00,VWS V14.01,2013-05-29 15:31:00,
2013-05-29 10:32:00,76.1,63.9,29.88,SE,135,9.4,17.2,66,0.00,,CLR,0.00,VWS V14.01,2013-05-29 15:32:00,
2013-05-29 10:34:00,76.1,63.9,29.88,SE,144,7.8,17.2,66,0.00,,CLR,0.00,VWS V14.01,2013-05-29 15:34:00,
2013-05-29 10:36:00,75.9,64.3,29.88,SW,233,15.3,23.3,67,0.00,,BKN034,0.00,VWS V14.01,2013-05-29 15:36:00,
2013-05-29 10:38:00,75.9,64.3,29.88,SSW,198,13.6,23.3,67,0.00,,CLR,0.00,VWS V14.01,2013-05-29 15:38:00,
2013-05-29 10:40:00,75.9,63.8,29.88,SSE,166,10.8,16.6,66,0.00,,CLR,0.00,VWS V14.01,2013-05-29 15:40:00,
2013-05-29 10:41:00,76.1,63.9,29.88,South,183,12.5,14.2,66,0.00,,BKN036,0.00,VWS V14.01,2013-05-29 15:41:00,
2013-05-29 10:42:00,76.1,63.9,29.88,SE,144,10.3,14.2,66,0.00,,CLR,0.00,VWS V14.01,2013-05-29 15:42:00,
2013-05-29 10:44:00,76.3,64.1,29.88,South,190,10.8,17.2,66,0.00,,CLR,0.00,VWS V14.01,2013-05-29 15:44:00,
2013-05-29 10:46:00,76.3,64.1,29.88,SSE,153,10.0,16.6,66,0.00,,CLR,0.00,VWS V14.01,2013-05-29 15:46:00,
2013-05-29 10:47:00,76.5,64.3,29.88,South,180,10.3,16.6,66,0.00,,BKN036,0.00,VWS V14.01,2013-05-29 15:47:00,
2013-05-29 10:48:00,76.5,63.7,29.88,South,188,14.1,16.6,65,0.00,,CLR,0.00,VWS V14.01,2013-05-29 15:48:00,
2013-05-29 10:50:00,76.5,63.7,29.88,SW,227,7.2,19.5,65,0.00,,CLR,0.00,VWS V14.01,2013-05-29 15:50:00,
2013-05-29 10:52:00,76.5,63.1,29.88,SSE,147,13.0,13.7,63,0.00,,BKN036,0.00,VWS V14.01,2013-05-29 15:52:00,
2013-05-29 10:54:00,76.5,63.7,29.88,SW,225,8.9,18.3,65,0.00,,CLR,0.00,VWS V14.01,2013-05-29 15:54:00,
2013-05-29 10:56:00,76.5,64.3,29.88,South,176,9.4,13.7,66,0.00,,CLR,0.00,VWS V14.01,2013-05-29 15:56:00,
2013-05-29 10:57:00,76.5,64.3,29.88,SE,137,7.8,13.7,66,0.00,,BKN036,0.00,VWS V14.01,2013-05-29 15:57:00,
2013-05-29 10:58:00,76.5,63.7,29.88,ESE,122,12.5,25.6,65,0.00,,CLR,0.00,VWS V14.01,2013-05-29 15:58:00,
2013-05-29 11:00:00,76.6,63.9,29.88,South,187,10.3,16.6,65,0.00,,CLR,0.00,VWS V14.01,2013-05-29 16:00:00,
2013-05-29 11:02:00,76.6,63.3,29.88,SSE,156,10.8,17.2,63,0.00,,BKN036,0.00,VWS V14.01,2013-05-29 16:02:00,
2013-05-29 11:04:00,76.6,63.3,29.88,SSE,165,10.0,23.8,63,0.00,,CLR,0.00,VWS V14.01,2013-05-29 16:04:00,
2013-05-29 11:06:00,76.8,63.4,29.88,SE,139,4.4,17.2,63,0.00,,CLR,0.00,VWS V14.01,2013-05-29 16:06:00,
2013-05-29 11:07:00,76.8,63.4,29.88,SW,225,18.0,18.9,63,0.00,,BKN036,0.00,VWS V14.01,2013-05-29 16:07:00,
2013-05-29 11:08:00,76.8,63.4,29.88,SSW,207,12.5,19.5,63,0.00,,CLR,0.00,VWS V14.01,2013-05-29 16:08:00,
2013-05-29 11:10:00,76.8,64.0,29.88,WSW,249,7.2,16.0,65,0.00,,CLR,0.00,VWS V14.01,2013-05-29 16:10:00,
2013-05-29 11:12:00,77.0,64.2,29.88,SSE,155,7.2,10.8,65,0.00,,BKN036,0.00,VWS V14.01,2013-05-29 16:12:00,
2013-05-29 11:14:00,77.2,64.4,29.88,SW,217,7.8,14.2,65,0.00,,CLR,0.00,VWS V14.01,2013-05-29 16:14:00,
2013-05-29 11:16:00,77.2,63.8,29.88,South,187,10.8,17.2,63,0.00,,CLR,0.00,VWS V14.01,2013-05-29 16:16:00,
2013-05-29 11:17:00,77.4,64.5,29.88,South,182,15.8,17.2,65,0.00,,BKN036,0.00,VWS V14.01,2013-05-29 16:17:00,
2013-05-29 11:18:00,77.4,64.5,29.88,SE,142,6.7,17.2,65,0.00,,CLR,0.00,VWS V14.01,2013-05-29 16:18:00,
2013-05-29 11:20:00,77.7,65.5,29.88,SSW,192,7.2,14.2,66,0.00,,CLR,0.00,VWS V14.01,2013-05-29 16:20:00,
2013-05-29 11:22:00,77.9,63.2,29.88,WSW,252,16.4,17.2,61,0.00,,BKN039,0.00,VWS V14.01,2013-05-29 16:22:00,
2013-05-29 11:24:00,77.9,62.6,29.88,SSE,168,6.7,17.2,59,0.00,,CLR,0.00,VWS V14.01,2013-05-29 16:24:00,
2013-05-29 11:26:00,77.9,63.2,29.88,SW,232,16.4,17.2,61,0.00,,CLR,0.00,VWS V14.01,2013-05-29 16:26:00,
2013-05-29 11:27:00,77.9,63.2,29.88,SSW,205,5.0,17.2,61,0.00,,BKN039,0.00,VWS V14.01,2013-05-29 16:27:00,
2013-05-29 11:28:00,77.7,63.1,29.88,SSW,212,13.0,17.2,61,0.00,,CLR,0.00,VWS V14.01,2013-05-29 16:28:00,
2013-05-29 11:30:00,77.5,62.9,29.88,SSE,151,14.7,21.8,61,0.00,,CLR,0.00,VWS V14.01,2013-05-29 16:30:00,
2013-05-29 11:32:00,77.2,62.6,29.88,SSE,165,13.6,21.8,61,0.00,,BKN039,0.00,VWS V14.01,2013-05-29 16:32:00,
2013-05-29 11:34:00,77.0,63.0,29.88,South,188,10.0,14.2,62,0.00,,CLR,0.00,VWS V14.01,2013-05-29 16:34:00,
2013-05-29 11:36:00,77.0,63.0,29.88,SSW,192,7.8,18.9,62,0.00,,CLR,0.00,VWS V14.01,2013-05-29 16:36:00,
2013-05-29 11:37:00,77.0,63.6,29.88,SW,220,15.8,16.6,63,0.00,,BKN039,0.00,VWS V14.01,2013-05-29 16:37:00,
2013-05-29 11:38:00,77.0,63.6,29.88,SSW,209,7.8,16.6,63,0.00,,CLR,0.00,VWS V14.01,2013-05-29 16:38:00,
2013-05-29 11:40:00,77.2,63.8,29.88,SW,219,10.0,16.0,63,0.00,,CLR,0.00,VWS V14.01,2013-05-29 16:40:00,
2013-05-29 11:42:00,77.2,64.4,29.88,SSE,149,6.1,10.5,65,0.00,,BKN039,0.00,VWS V14.01,2013-05-29 16:42:00,
2013-05-29 11:44:00,77.2,63.8,29.88,SSW,209,7.2,12.5,63,0.00,,CLR,0.00,VWS V14.01,2013-05-29 16:44:00,
2013-05-29 11:46:00,77.2,63.8,29.88,SSW,211,8.9,13.7,63,0.00,,CLR,0.00,VWS V14.01,2013-05-29 16:46:00,
2013-05-29 11:47:00,77.2,63.8,29.88,WSW,247,7.2,11.3,63,0.00,,BKN039,0.00,VWS V14.01,2013-05-29 16:47:00,
2013-05-29 11:48:00,77.2,63.8,29.88,South,180,7.2,10.8,63,0.00,,CLR,0.00,VWS V14.01,2013-05-29 16:48:00,
2013-05-29 11:50:00,77.2,62.6,29.88,SSW,200,21.1,22.1,61,0.00,,CLR,0.00,VWS V14.01,2013-05-29 16:50:00,
2013-05-29 11:52:00,77.0,62.4,29.88,SSW,204,7.8,23.3,61,0.00,,BKN039,0.00,VWS V14.01,2013-05-29 16:52:00,
2013-05-29 11:54:00,77.0,63.0,29.88,SSW,211,3.9,17.2,62,0.00,,CLR,0.00,VWS V14.01,2013-05-29 16:54:00,
2013-05-29 11:56:00,77.0,63.0,29.88,SSW,197,14.7,15.4,62,0.00,,CLR,0.00,VWS V14.01,2013-05-29 16:56:00,
2013-05-29 11:57:00,77.0,63.6,29.88,WSW,251,9.4,15.4,63,0.00,,BKN039,0.00,VWS V14.01,2013-05-29 16:57:00,
2013-05-29 11:58:00,77.0,63.6,29.88,SW,220,7.2,15.4,63,0.00,,CLR,0.00,VWS V14.01,2013-05-29 16:58:00,
2013-05-29 12:00:00,76.8,62.8,29.88,South,189,7.8,17.2,62,0.00,,CLR,0.00,VWS V14.01,2013-05-29 17:00:00,
2013-05-29 12:02:00,76.8,62.2,29.88,South,172,16.4,18.9,61,0.00,,OVC043,0.00,VWS V14.01,2013-05-29 17:02:00,
2013-05-29 12:04:00,76.8,62.2,29.88,SSE,156,15.3,17.2,61,0.00,,CLR,0.00,VWS V14.01,2013-05-29 17:04:00,
2013-05-29 12:06:00,76.6,62.7,29.88,SSE,168,10.0,16.6,62,0.00,,CLR,0.00,VWS V14.01,2013-05-29 17:06:00,
2013-05-29 12:07:00,76.6,63.3,29.88,SSE,150,19.1,20.1,63,0.00,,OVC043,0.00,VWS V14.01,2013-05-29 17:07:00,
2013-05-29 12:08:00,76.6,63.3,29.88,South,174,11.9,20.1,63,0.00,,CLR,0.00,VWS V14.01,2013-05-29 17:08:00,
2013-05-29 12:10:00,76.6,62.7,29.88,South,170,6.7,14.2,62,0.00,,CLR,0.00,VWS V14.01,2013-05-29 17:10:00,
2013-05-29 12:12:00,76.6,63.3,29.88,SSE,154,7.8,13.1,63,0.00,,OVC043,0.00,VWS V14.01,2013-05-29 17:12:00,
2013-05-29 12:14:00,76.8,63.4,29.88,SW,216,13.6,14.2,63,0.00,,CLR,0.00,VWS V14.01,2013-05-29 17:14:00,
2013-05-29 12:16:00,76.8,63.4,29.88,SSW,203,4.4,16.0,63,0.00,,CLR,0.00,VWS V14.01,2013-05-29 17:16:00,
2013-05-29 12:17:00,76.6,63.3,29.88,SW,234,5.0,13.7,63,0.00,,OVC043,0.00,VWS V14.01,2013-05-29 17:17:00,
2013-05-29 12:18:00,76.6,63.3,29.88,SW,218,5.0,13.7,63,0.00,,CLR,0.00,VWS V14.01,2013-05-29 17:18:00,
2013-05-29 12:20:00,76.6,63.3,29.88,SW,235,7.2,15.4,63,0.00,,CLR,0.00,VWS V14.01,2013-05-29 17:20:00,
2013-05-29 12:22:00,76.5,63.1,29.88,West,260,10.0,13.7,63,0.00,,OVC050,0.00,VWS V14.01,2013-05-29 17:22:00,
2013-05-29 12:24:00,76.5,63.1,29.88,SW,216,10.3,14.8,63,0.00,,CLR,0.00,VWS V14.01,2013-05-29 17:24:00,
2013-05-29 12:26:00,76.5,63.1,29.88,SSW,206,7.2,22.1,63,0.00,,CLR,0.00,VWS V14.01,2013-05-29 17:26:00,
2013-05-29 12:27:00,76.3,62.9,29.88,WSW,245,10.8,11.3,63,0.00,,OVC050,0.00,VWS V14.01,2013-05-29 17:27:00,
2013-05-29 12:28:00,76.3,62.9,29.88,SSE,162,11.9,15.4,63,0.00,,CLR,0.00,VWS V14.01,2013-05-29 17:28:00,
2013-05-29 12:30:00,76.3,62.3,29.88,South,169,16.4,20.6,62,0.00,,CLR,0.00,VWS V14.01,2013-05-29 17:30:00,
2013-05-29 12:32:00,76.3,62.9,29.88,SW,231,5.0,17.2,63,0.00,,OVC050,0.00,VWS V14.01,2013-05-29 17:32:00,
2013-05-29 12:34:00,76.5,63.1,29.88,WSW,243,15.3,18.9,63,0.00,,CLR,0.00,VWS V14.01,2013-05-29 17:34:00,
2013-05-29 12:36:00,76.5,63.1,29.88,SW,227,13.0,16.6,63,0.00,,CLR,0.00,VWS V14.01,2013-05-29 17:36:00,
2013-05-29 12:37:00,76.6,63.3,29.88,SSW,209,3.9,16.0,63,0.00,,OVC050,0.00,VWS V14.01,2013-05-29 17:37:00,
2013-05-29 12:38:00,76.6,63.9,29.88,ESE,123,12.5,16.0,65,0.00,,CLR,0.00,VWS V14.01,2013-05-29 17:38:00,
2013-05-29 12:40:00,76.8,63.4,29.88,South,177,7.2,13.1,63,0.00,,CLR,0.00,VWS V14.01,2013-05-29 17:40:00,
2013-05-29 12:42:00,77.2,63.8,29.88,WSW,250,10.8,13.1,63,0.00,,OVC050,0.00,VWS V14.01,2013-05-29 17:42:00,
2013-05-29 12:44:00,77.4,64.0,29.88,South,181,10.0,14.2,63,0.00,,CLR,0.00,VWS V14.01,2013-05-29 17:44:00,
2013-05-29 12:46:00,77.5,62.3,29.88,SW,223,10.0,19.5,59,0.00,,CLR,0.00,VWS V14.01,2013-05-29 17:46:00,
2013-05-29 12:47:00,77.5,62.9,29.88,SSE,158,19.1,20.1,61,0.00,,OVC050,0.00,VWS V14.01,2013-05-29 17:47:00,
2013-05-29 12:48:00,77.5,62.9,29.88,South,174,11.4,20.1,61,0.00,,CLR,0.00,VWS V14.01,2013-05-29 17:48:00,
2013-05-29 12:50:00,77.5,62.9,29.88,SSW,197,10.3,20.1,61,0.00,,CLR,0.00,VWS V14.01,2013-05-29 17:50:00,
2013-05-29 12:52:00,77.5,63.5,29.88,SSE,164,4.4,9.9,62,0.00,,OVC050,0.00,VWS V14.01,2013-05-29 17:52:00,
2013-05-29 12:54:00,77.5,64.1,29.88,WSW,243,3.9,9.9,63,0.00,,CLR,0.00,VWS V14.01,2013-05-29 17:54:00,
2013-05-29 12:56:00,77.7,64.3,29.88,SSE,160,3.3,10.8,63,0.00,,CLR,0.00,VWS V14.01,2013-05-29 17:56:00,
2013-05-29 12:57:00,77.7,63.7,29.88,SSE,161,9.4,13.1,62,0.00,,OVC050,0.00,VWS V14.01,2013-05-29 17:57:00,
2013-05-29 12:58:00,77.7,63.7,29.88,SW,226,7.2,13.1,62,0.00,,CLR,0.00,VWS V14.01,2013-05-29 17:58:00,
2013-05-29 13:00:00,77.7,64.3,29.88,SSE,155,10.0,13.7,63,0.00,,CLR,0.00,VWS V14.01,2013-05-29 18:00:00,
2013-05-29 13:02:00,77.7,63.7,29.88,SSE,148,3.9,11.3,62,0.00,,CLR,0.00,VWS V14.01,2013-05-29 18:02:00,
2013-05-29 13:03:00,77.7,63.7,29.88,SSE,153,14.7,15.4,62,0.00,,OVC060,0.00,VWS V14.01,2013-05-29 18:03:00,
2013-05-29 13:04:00,77.7,63.1,29.88,South,171,10.3,15.4,61,0.00,,CLR,0.00,VWS V14.01,2013-05-29 18:04:00,
2013-05-29 13:06:00,77.7,63.7,29.88,SSW,205,7.2,17.2,62,0.00,,CLR,0.00,VWS V14.01,2013-05-29 18:06:00,
2013-05-29 13:08:00,77.7,63.7,29.88,South,184,14.7,16.0,62,0.00,,OVC060,0.00,VWS V14.01,2013-05-29 18:08:00,
2013-05-29 13:10:00,77.9,64.5,29.88,SSW,195,18.0,19.5,63,0.00,,CLR,0.00,VWS V14.01,2013-05-29 18:10:00,
2013-05-29 13:12:00,78.1,64.0,29.88,East,96,6.7,19.5,62,0.00,,CLR,0.00,VWS V14.01,2013-05-29 18:12:00,
2013-05-29 13:13:00,78.1,64.6,29.88,South,171,10.0,10.5,63,0.00,,OVC060,0.00,VWS V14.01,2013-05-29 18:13:00,
2013-05-29 13:14:00,78.3,64.8,29.88,ESE,106,10.0,13.7,63,0.00,,CLR,0.00,VWS V14.01,2013-05-29 18:14:00,
2013-05-29 13:16:00,78.3,64.2,29.88,SSW,199,3.9,10.8,62,0.00,,CLR,0.00,VWS V14.01,2013-05-29 18:16:00,
2013-05-29 13:18:00,78.4,64.4,29.88,South,172,5.0,10.8,62,0.00,,OVC060,0.00,VWS V14.01,2013-05-29 18:18:00,
2013-05-29 13:20:00,78.8,64.1,29.88,SSE,164,6.7,11.3,61,0.00,,CLR,0.00,VWS V14.01,2013-05-29 18:20:00,
2013-05-29 13:22:00,78.8,64.1,29.88,SE,139,10.0,20.1,61,0.00,,CLR,0.00,VWS V14.01,2013-05-29 18:22:00,
2013-05-29 13:23:00,78.8,63.5,29.88,SSE,159,7.8,17.2,59,0.00,,SCT050,0.00,VWS V14.01,2013-05-29 18:23:00,
2013-05-29 13:24:00,78.8,63.5,29.88,SE,136,6.7,17.2,59,0.00,,CLR,0.00,VWS V14.01,2013-05-29 18:24:00,
2013-05-29 13:28:00,78.6,63.9,29.88,SSW,210,7.8,16.0,61,0.00,,SCT050,0.00,VWS V14.01,2013-05-29 18:28:00,
2013-05-29 13:30:00,78.6,63.3,29.88,South,169,4.4,17.2,59,0.00,,CLR,0.00,VWS V14.01,2013-05-29 18:30:00,
2013-05-29 13:32:00,78.6,63.9,29.88,ESE,116,16.4,17.2,61,0.00,,CLR,0.00,VWS V14.01,2013-05-29 18:32:00,
2013-05-29 13:33:00,78.6,62.7,29.88,SSE,161,9.4,17.2,58,0.00,,SCT050,0.00,VWS V14.01,2013-05-29 18:33:00,
2013-05-29 13:34:00,78.6,63.3,29.88,South,191,9.4,17.2,59,0.00,,CLR,0.00,VWS V14.01,2013-05-29 18:34:00,
2013-05-29 13:36:00,78.6,63.3,29.88,South,177,7.8,13.1,59,0.00,,CLR,0.00,VWS V14.01,2013-05-29 18:36:00,
2013-05-29 13:38:00,78.6,63.3,29.88,SSW,202,10.8,18.9,59,0.00,,SCT050,0.00,VWS V14.01,2013-05-29 18:38:00,
2013-05-29 13:40:00,78.6,63.3,29.88,ESE,114,4.4,17.7,59,0.00,,CLR,0.00,VWS V14.01,2013-05-29 18:40:00,
2013-05-29 13:42:00,78.6,63.3,29.88,ENE,63,13.6,17.2,59,0.00,,CLR,0.00,VWS V14.01,2013-05-29 18:42:00,
2013-05-29 13:43:00,78.8,63.5,29.88,SSW,194,10.8,17.2,59,0.00,,FEW039,0.00,VWS V14.01,2013-05-29 18:43:00,
2013-05-29 13:44:00,78.6,62.7,29.88,SE,125,9.4,17.2,58,0.00,,CLR,0.00,VWS V14.01,2013-05-29 18:44:00,
2013-05-29 13:46:00,78.6,62.7,29.88,South,187,10.8,17.2,58,0.00,,CLR,0.00,VWS V14.01,2013-05-29 18:46:00,
2013-05-29 13:48:00,78.6,63.9,29.88,SSE,156,9.4,17.2,61,0.00,,FEW039,0.00,VWS V14.01,2013-05-29 18:48:00,
2013-05-29 13:50:00,78.8,64.1,29.88,SSE,167,7.2,11.3,61,0.00,,CLR,0.00,VWS V14.01,2013-05-29 18:50:00,
2013-05-29 13:52:00,79.0,64.3,29.88,SSW,205,8.3,10.8,61,0.00,,CLR,0.00,VWS V14.01,2013-05-29 18:52:00,
2013-05-29 13:53:00,79.2,63.2,29.88,SE,146,16.9,17.7,58,0.00,,FEW039,0.00,VWS V14.01,2013-05-29 18:53:00,
2013-05-29 13:54:00,79.2,63.8,29.88,South,184,10.3,17.7,59,0.00,,CLR,0.00,VWS V14.01,2013-05-29 18:54:00,
2013-05-29 13:56:00,79.2,63.2,29.88,SE,141,6.7,13.7,58,0.00,,CLR,0.00,VWS V14.01,2013-05-29 18:56:00,
2013-05-29 13:58:00,79.2,62.5,29.88,SSE,153,8.9,22.1,57,0.00,,FEW039,0.00,VWS V14.01,2013-05-29 18:58:00,
2013-05-29 14:00:00,79.2,62.5,29.88,SSE,163,9.4,17.2,57,0.00,,CLR,0.00,VWS V14.01,2013-05-29 19:00:00,
2013-05-29 14:02:00,79.2,62.5,29.88,SSE,163,12.5,16.6,57,0.00,,CLR,0.00,VWS V14.01,2013-05-29 19:02:00,
2013-05-29 14:03:00,79.2,62.5,29.88,South,188,7.2,20.1,57,0.00,,FEW039,0.00,VWS V14.01,2013-05-29 19:03:00,
2013-05-29 14:04:00,79.2,62.5,29.88,SSE,155,6.7,20.1,57,0.00,,CLR,0.00,VWS V14.01,2013-05-29 19:04:00,
2013-05-29 14:06:00,79.0,62.3,29.88,SSW,205,13.6,19.5,57,0.00,,CLR,0.00,VWS V14.01,2013-05-29 19:06:00,
2013-05-29 14:08:00,79.0,63.0,29.88,SSE,158,10.0,14.2,58,0.00,,FEW039,0.00,VWS V14.01,2013-05-29 19:08:00,
2013-05-29 14:10:00,79.0,63.6,29.88,SE,132,18.6,19.5,59,0.00,,CLR,0.00,VWS V14.01,2013-05-29 19:10:00,
2013-05-29 14:12:00,79.2,63.8,29.88,ESE,123,7.8,19.5,59,0.00,,CLR,0.00,VWS V14.01,2013-05-29 19:12:00,
2013-05-29 14:13:00,79.2,63.2,29.88,SSE,149,15.8,16.6,58,0.00,,FEW039,0.00,VWS V14.01,2013-05-29 19:13:00,
2013-05-29 14:14:00,79.2,63.8,29.88,SSW,203,6.7,16.6,59,0.00,,CLR,0.00,VWS V14.01,2013-05-29 19:14:00,
2013-05-29 14:18:00,79.2,63.8,29.88,SSE,153,10.3,16.6,59,0.00,,BKN047,0.00,VWS V14.01,2013-05-29 19:18:00,
2013-05-29 14:20:00,79.2,62.5,29.88,SSE,150,12.5,20.1,57,0.00,,CLR,0.00,VWS V14.01,2013-05-29 19:20:00,
2013-05-29 14:22:00,79.2,62.5,29.88,SW,231,15.3,20.1,57,0.00,,CLR,0.00,VWS V14.01,2013-05-29 19:22:00,
2013-05-29 14:23:00,79.2,63.2,29.88,SSW,199,11.4,16.6,58,0.00,,BKN047,0.00,VWS V14.01,2013-05-29 19:23:00,
2013-05-29 14:24:00,79.2,63.2,29.88,SW,216,16.4,18.3,58,0.00,,CLR,0.00,VWS V14.01,2013-05-29 19:24:00,
2013-05-29 14:26:00,79.3,62.7,29.88,SSW,209,6.1,18.3,57,0.00,,CLR,0.00,VWS V14.01,2013-05-29 19:26:00,
2013-05-29 14:28:00,79.5,62.8,29.88,South,170,9.4,18.3,57,0.00,,BKN047,0.00,VWS V14.01,2013-05-29 19:28:00,
2013-05-29 14:30:00,79.5,62.8,29.88,East,80,7.8,16.0,57,0.00,,CLR,0.00,VWS V14.01,2013-05-29 19:30:00,
2013-05-29 14:32:00,79.5,62.8,29.88,South,190,3.9,13.7,57,0.00,,CLR,0.00,VWS V14.01,2013-05-29 19:32:00,
2013-05-29 14:33:00,79.5,62.8,29.88,SE,137,10.0,15.4,57,0.00,,BKN047,0.00,VWS V14.01,2013-05-29 19:33:00,
2013-05-29 14:34:00,79.3,62.7,29.88,SSW,208,10.0,15.4,57,0.00,,CLR,0.00,VWS V14.01,2013-05-29 19:34:00,
2013-05-29 14:36:00,79.2,62.5,29.88,South,191,7.8,13.7,57,0.00,,CLR,0.00,VWS V14.01,2013-05-29 19:36:00,
2013-05-29 14:38:00,79.0,63.0,29.88,SSE,155,5.0,14.2,58,0.00,,OVC050,0.00,VWS V14.01,2013-05-29 19:38:00,
2013-05-29 14:40:00,79.2,63.8,29.88,SSW,210,7.8,10.8,59,0.00,,CLR,0.00,VWS V14.01,2013-05-29 19:40:00,
2013-05-29 14:42:00,79.2,63.8,29.88,SSE,165,6.7,10.8,59,0.00,,CLR,0.00,VWS V14.01,2013-05-29 19:42:00,
2013-05-29 14:43:00,79.3,63.3,29.88,SE,130,10.0,14.2,58,0.00,,OVC050,0.00,VWS V14.01,2013-05-29 19:43:00,
2013-05-29 14:44:00,79.3,63.3,29.88,SSE,156,9.4,14.2,58,0.00,,CLR,0.00,VWS V14.01,2013-05-29 19:44:00,
2013-05-29 14:46:00,79.3,64.0,29.88,WSW,243,7.2,10.8,59,0.00,,CLR,0.00,VWS V14.01,2013-05-29 19:46:00,
2013-05-29 14:48:00,79.3,63.3,29.88,West,267,3.3,16.6,58,0.00,,CLR,0.00,VWS V14.01,2013-05-29 19:48:00,
2013-05-29 14:49:00,79.3,63.3,29.88,SW,223,15.3,16.6,58,0.00,,OVC050,0.00,VWS V14.01,2013-05-29 19:49:00,
2013-05-29 14:50:00,79.3,63.3,29.88,SW,226,7.8,16.0,58,0.00,,CLR,0.00,VWS V14.01,2013-05-29 19:50:00,
2013-05-29 14:52:00,79.3,63.3,29.88,SE,146,6.7,13.1,58,0.00,,CLR,0.00,VWS V14.01,2013-05-29 19:52:00,
2013-05-29 14:54:00,79.3,64.0,29.85,SSE,156,4.4,7.0,59,0.00,,OVC050,0.00,VWS V14.01,2013-05-29 19:54:00,
2013-05-29 14:56:00,79.2,63.2,29.85,ESE,123,11.9,16.6,58,0.00,,CLR,0.00,VWS V14.01,2013-05-29 19:56:00,
2013-05-29 14:58:00,79.2,63.2,29.85,SE,133,7.8,16.6,58,0.00,,CLR,0.00,VWS V14.01,2013-05-29 19:58:00,
2013-05-29 14:59:00,79.2,63.2,29.85,SSE,163,7.2,13.1,58,0.00,,OVC050,0.00,VWS V14.01,2013-05-29 19:59:00,
2013-05-29 15:00:00,79.0,63.0,29.85,SW,235,4.4,11.3,58,0.00,,CLR,0.00,VWS V14.01,2013-05-29 20:00:00,
2013-05-29 15:02:00,79.0,63.6,29.82,South,191,5.0,10.8,59,0.00,,CLR,0.00,VWS V14.01,2013-05-29 20:02:00,
2013-05-29 15:04:00,79.0,63.6,29.82,SSW,193,8.9,9.3,59,0.00,,CLR,0.00,VWS V14.01,2013-05-29 20:04:00,
2013-05-29 15:06:00,79.0,63.6,29.82,SSE,152,10.0,11.3,59,0.00,,OVC050,0.00,VWS V14.01,2013-05-29 20:06:00,
2013-05-29 15:08:00,78.8,62.8,29.82,SSE,168,3.3,17.7,58,0.00,,CLR,0.00,VWS V14.01,2013-05-29 20:08:00,
2013-05-29 15:10:00,78.8,63.5,29.82,SE,127,7.8,13.1,59,0.00,,CLR,0.00,VWS V14.01,2013-05-29 20:10:00,
2013-05-29 15:11:00,78.6,63.3,29.85,East,94,6.1,10.5,59,0.00,,OVC050,0.00,VWS V14.01,2013-05-29 20:11:00,
2013-05-29 15:12:00,78.6,63.3,29.85,South,184,7.8,12.5,59,0.00,,CLR,0.00,VWS V14.01,2013-05-29 20:12:00,
2013-05-29 15:14:00,78.6,63.3,29.85,ESE,103,10.3,16.6,59,0.00,,CLR,0.00,VWS V14.01,2013-05-29 20:14:00,
2013-05-29 15:16:00,78.4,63.1,29.85,South,177,6.7,16.0,59,0.00,,OVC050,0.00,VWS V14.01,2013-05-29 20:16:00,
2013-05-29 15:18:00,78.4,63.1,29.85,South,186,10.8,11.3,59,0.00,,CLR,0.00,VWS V14.01,2013-05-29 20:18:00,
2013-05-29 15:20:00,78.3,63.0,29.85,South,181,3.9,15.4,59,0.00,,CLR,0.00,VWS V14.01,2013-05-29 20:20:00,
2013-05-29 15:21:00,78.3,63.6,29.85,SSE,158,13.0,13.7,61,0.00,,SCT038,0.00,VWS V14.01,2013-05-29 20:21:00,
2013-05-29 15:22:00,78.3,63.6,29.85,SE,145,8.9,13.7,61,0.00,,CLR,0.00,VWS V14.01,2013-05-29 20:22:00,
2013-05-29 15:24:00,78.3,63.6,29.85,ESE,115,7.2,13.1,61,0.00,,CLR,0.00,VWS V14.01,2013-05-29 20:24:00,
2013-05-29 15:26:00,78.1,63.4,29.85,SE,145,10.8,16.0,61,0.00,,SCT038,0.00,VWS V14.01,2013-05-29 20:26:00,
2013-05-29 15:28:00,78.1,63.4,29.85,South,177,7.2,11.9,61,0.00,,CLR,0.00,VWS V14.01,2013-05-29 20:28:00,
2013-05-29 15:30:00,78.1,63.4,29.85,SE,125,3.3,19.5,61,0.00,,CLR,0.00,VWS V14.01,2013-05-29 20:30:00,
2013-05-29 15:31:00,78.1,64.0,29.85,SW,217,10.3,19.5,62,0.00,,SCT038,0.00,VWS V14.01,2013-05-29 20:31:00,
2013-05-29 15:32:00,78.1,64.0,29.85,SSW,212,13.6,14.2,62,0.00,,CLR,0.00,VWS V14.01,2013-05-29 20:32:00,
2013-05-29 15:34:00,78.1,63.4,29.85,South,180,11.4,14.2,61,0.00,,CLR,0.00,VWS V14.01,2013-05-29 20:34:00,
2013-05-29 15:36:00,78.3,64.2,29.85,SW,224,5.0,13.7,62,0.00,,SCT038,0.00,VWS V14.01,2013-05-29 20:36:00,
2013-05-29 15:38:00,78.4,64.4,29.85,SSW,196,14.1,14.8,62,0.00,,CLR,0.00,VWS V14.01,2013-05-29 20:38:00,
2013-05-29 15:40:00,78.6,64.5,29.85,SE,143,5.0,15.4,62,0.00,,CLR,0.00,VWS V14.01,2013-05-29 20:40:00,
2013-05-29 15:41:00,78.6,64.5,29.85,SE,141,4.4,15.4,62,0.00,,FEW038,0.00,VWS V14.01,2013-05-29 20:41:00,
2013-05-29 15:42:00,78.8,64.1,29.85,South,177,10.3,11.3,61,0.00,,CLR,0.00,VWS V14.01,2013-05-29 20:42:00,
2013-05-29 15:44:00,79.0,64.3,29.85,SSW,195,6.1,10.8,61,0.00,,CLR,0.00,VWS V14.01,2013-05-29 20:44:00,
2013-05-29 15:46:00,79.3,64.6,29.85,SE,136,10.3,16.6,61,0.00,,FEW038,0.00,VWS V14.01,2013-05-29 20:46:00,
2013-05-29 15:48:00,79.5,64.1,29.85,SSE,154,16.4,17.2,59,0.00,,CLR,0.00,VWS V14.01,2013-05-29 20:48:00,
2013-05-29 15:50:00,79.5,64.1,29.85,South,187,6.1,10.5,59,0.00,,CLR,0.00,VWS V14.01,2013-05-29 20:50:00,
2013-05-29 15:51:00,79.5,64.1,29.85,SW,221,5.0,10.5,59,0.00,,FEW038,0.00,VWS V14.01,2013-05-29 20:51:00,
2013-05-29 15:52:00,79.5,64.8,29.85,SSE,158,7.8,8.1,61,0.00,,CLR,0.00,VWS V14.01,2013-05-29 20:52:00,
2013-05-29 15:54:00,79.5,64.1,29.85,SE,141,7.8,8.1,59,0.00,,CLR,0.00,VWS V14.01,2013-05-29 20:54:00,
2013-05-29 15:56:00,79.5,64.1,29.82,SW,230,10.0,13.7,59,0.00,,FEW038,0.00,VWS V14.01,2013-05-29 20:56:00,
2013-05-29 15:58:00,79.3,64.0,29.82,SSE,159,4.4,13.1,59,0.00,,CLR,0.00,VWS V14.01,2013-05-29 20:58:00,
2013-05-29 16:00:00,79.2,64.4,29.82,SE,139,5.0,9.9,61,0.00,,CLR,0.00,VWS V14.01,2013-05-29 21:00:00,
2013-05-29 16:01:00,79.2,64.4,29.82,SE,138,13.6,14.2,61,0.00,,FEW038,0.00,VWS V14.01,2013-05-29 21:01:00,
2013-05-29 16:02:00,79.2,64.4,29.82,SSE,157,7.2,21.8,61,0.00,,CLR,0.00,VWS V14.01,2013-05-29 21:02:00,
2013-05-29 16:04:00,79.0,64.3,29.82,South,176,6.7,15.4,61,0.00,,CLR,0.00,VWS V14.01,2013-05-29 21:04:00,
2013-05-29 16:06:00,79.0,64.3,29.82,SSW,212,10.0,10.5,61,0.00,,FEW038,0.00,VWS V14.01,2013-05-29 21:06:00,
2013-05-29 16:08:00,78.8,64.1,29.82,SW,226,4.4,11.3,61,0.00,,CLR,0.00,VWS V14.01,2013-05-29 21:08:00,
2013-05-29 16:10:00,78.8,64.1,29.82,SSE,164,10.0,16.0,61,0.00,,CLR,0.00,VWS V14.01,2013-05-29 21:10:00,
2013-05-29 16:11:00,78.8,64.1,29.82,South,191,3.9,16.0,61,0.00,,FEW038,0.00,VWS V14.01,2013-05-29 21:11:00,
2013-05-29 16:12:00,78.8,64.1,29.82,SSE,167,10.3,13.1,61,0.00,,CLR,0.00,VWS V14.01,2013-05-29 21:12:00,
2013-05-29 16:14:00,78.8,64.1,29.82,SSW,211,5.0,17.2,61,0.00,,CLR,0.00,VWS V14.01,2013-05-29 21:14:00,
2013-05-29 16:16:00,78.6,63.9,29.82,SW,217,9.4,13.1,61,0.00,,FEW038,0.00,VWS V14.01,2013-05-29 21:16:00,
2013-05-29 16:18:00,78.6,63.9,29.82,SE,144,11.9,13.1,61,0.00,,CLR,0.00,VWS V14.01,2013-05-29 21:18:00,
2013-05-29 16:20:00,78.6,63.9,29.82,SSW,194,5.0,13.1,61,0.00,,CLR,0.00,VWS V14.01,2013-05-29 21:20:00,
2013-05-29 16:21:00,78.4,63.8,29.82,ESE,112,4.4,11.3,61,0.00,,BKN055,0.00,VWS V14.01,2013-05-29 21:21:00,
2013-05-29 16:22:00,78.4,63.8,29.82,SSE,164,9.4,10.8,61,0.00,,CLR,0.00,VWS V14.01,2013-05-29 21:22:00,
2013-05-29 16:24:00,78.4,64.4,29.82,SSE,162,9.4,11.3,62,0.00,,CLR,0.00,VWS V14.01,2013-05-29 21:24:00,
2013-05-29 16:26:00,78.3,63.6,29.82,SSW,192,5.0,16.6,61,0.00,,BKN055,0.00,VWS V14.01,2013-05-29 21:26:00,
2013-05-29 16:28:00,78.4,63.8,29.82,SW,222,6.7,11.3,61,0.00,,CLR,0.00,VWS V14.01,2013-05-29 21:28:00,
2013-05-29 16:30:00,78.4,63.8,29.82,WSW,237,6.7,11.3,61,0.00,,CLR,0.00,VWS V14.01,2013-05-29 21:30:00,
2013-05-29 16:31:00,78.4,63.8,29.82,SSW,193,2.8,7.0,61,0.00,,BKN055,0.00,VWS V14.01,2013-05-29 21:31:00,
2013-05-29 16:32:00,78.4,64.4,29.82,South,175,6.7,8.1,62,0.00,,CLR,0.00,VWS V14.01,2013-05-29 21:32:00,
2013-05-29 16:34:00,78.6,64.5,29.82,SSW,193,13.0,13.7,62,0.00,,CLR,0.00,VWS V14.01,2013-05-29 21:34:00,
2013-05-29 16:36:00,78.6,63.9,29.82,WSW,240,6.7,10.5,61,0.00,,BKN055,0.00,VWS V14.01,2013-05-29 21:36:00,
2013-05-29 16:38:00,78.6,63.3,29.82,SSE,159,18.0,18.9,59,0.00,,CLR,0.00,VWS V14.01,2013-05-29 21:38:00,
2013-05-29 16:40:00,78.6,63.3,29.82,SSE,156,16.4,18.9,59,0.00,,CLR,0.00,VWS V14.01,2013-05-29 21:40:00,
2013-05-29 16:41:00,78.6,63.3,29.82,SSE,168,7.8,17.2,59,0.00,,BKN070,0.00,VWS V14.01,2013-05-29 21:41:00,
2013-05-29 16:42:00,78.6,63.9,29.82,SSW,193,7.8,17.2,61,0.00,,CLR,0.00,VWS V14.01,2013-05-29 21:42:00,
2013-05-29 16:44:00,78.6,63.3,29.82,South,176,10.3,13.7,59,0.00,,CLR,0.00,VWS V14.01,2013-05-29 21:44:00,
2013-05-29 16:46:00,78.6,63.9,29.82,SE,143,6.7,11.3,61,0.00,,BKN070,0.00,VWS V14.01,2013-05-29 21:46:00,
2013-05-29 16:48:00,78.6,63.9,29.82,SSW,197,10.8,15.4,61,0.00,,CLR,0.00,VWS V14.01,2013-05-29 21:48:00,
2013-05-29 16:50:00,78.6,63.9,29.82,West,269,9.4,16.6,61,0.00,,CLR,0.00,VWS V14.01,2013-05-29 21:50:00,
2013-05-29 16:51:00,78.4,63.8,29.82,South,178,10.8,17.2,61,0.00,,BKN070,0.00,VWS V14.01,2013-05-29 21:51:00,
2013-05-29 16:52:00,78.4,63.8,29.82,SSW,204,6.7,17.2,61,0.00,,CLR,0.00,VWS V14.01,2013-05-29 21:52:00,
2013-05-29 16:54:00,78.4,63.8,29.82,SE,146,6.7,10.8,61,0.00,,CLR,0.00,VWS V14.01,2013-05-29 21:54:00,
2013-05-29 16:56:00,78.4,63.8,29.82,SSW,200,7.8,13.1,61,0.00,,BKN070,0.00,VWS V14.01,2013-05-29 21:56:00,
2013-05-29 16:58:00,78.4,63.8,29.82,SSE,165,12.5,16.6,61,0.00,,CLR,0.00,VWS V14.01,2013-05-29 21:58:00,
2013-05-29 17:00:00,78.6,63.9,29.82,SE,138,9.4,14.2,61,0.00,,CLR,0.00,VWS V14.01,2013-05-29 22:00:00,
2013-05-29 17:01:00,78.6,63.9,29.82,SSE,168,5.0,10.8,61,0.00,,SCT055,0.00,VWS V14.01,2013-05-29 22:01:00,
2013-05-29 17:02:00,78.6,63.9,29.82,South,187,5.0,10.8,61,0.00,,CLR,0.00,VWS V14.01,2013-05-29 22:02:00,
2013-05-29 17:04:00,78.6,63.9,29.82,SE,146,7.2,10.8,61,0.00,,CLR,0.00,VWS V14.01,2013-05-29 22:04:00,
2013-05-29 17:06:00,78.6,63.9,29.82,SSW,194,6.1,11.3,61,0.00,,SCT055,0.00,VWS V14.01,2013-05-29 22:06:00,
2013-05-29 17:08:00,78.6,63.9,29.82,SSW,204,6.1,8.1,61,0.00,,CLR,0.00,VWS V14.01,2013-05-29 22:08:00,
2013-05-29 17:10:00,78.6,63.9,29.82,SSW,203,5.0,12.5,61,0.00,,CLR,0.00,VWS V14.01,2013-05-29 22:10:00,
2013-05-29 17:11:00,78.4,63.8,29.79,SE,141,3.3,16.0,61,0.00,,SCT055,0.00,VWS V14.01,2013-05-29 22:11:00,
2013-05-29 17:12:00,78.4,63.8,29.79,SW,234,6.1,16.0,61,0.00,,CLR,0.00,VWS V14.01,2013-05-29 22:12:00,
2013-05-29 17:14:00,78.4,63.8,29.79,SSE,167,7.2,12.5,61,0.00,,CLR,0.00,VWS V14.01,2013-05-29 22:14:00,
2013-05-29 17:16:00,78.4,63.8,29.79,South,183,7.2,8.1,61,0.00,,SCT055,0.00,VWS V14.01,2013-05-29 22:16:00,
2013-05-29 17:18:00,78.4,63.8,29.79,South,177,7.2,8.1,61,0.00,,CLR,0.00,VWS V14.01,2013-05-29 22:18:00,
2013-05-29 17:20:00,78.4,64.4,29.79,South,177,5.0,9.9,62,0.00,,CLR,0.00,VWS V14.01,2013-05-29 22:20:00,
2013-05-29 17:21:00,78.4,64.4,29.79,SSE,149,7.2,7.6,62,0.00,,CLR,0.00,VWS V14.01,2013-05-29 22:21:00,
2013-05-29 17:22:00,78.4,64.4,29.79,SSW,196,6.7,7.6,62,0.00,,CLR,0.00,VWS V14.01,2013-05-29 22:22:00,
2013-05-29 17:24:00,78.4,63.8,29.79,SE,135,6.1,11.3,61,0.00,,CLR,0.00,VWS V14.01,2013-05-29 22:24:00,
2013-05-29 17:26:00,78.4,64.4,29.79,SSW,194,9.4,9.9,62,0.00,,CLR,0.00,VWS V14.01,2013-05-29 22:26:00,
2013-05-29 17:28:00,78.4,64.4,29.79,SSE,163,7.8,9.9,62,0.00,,CLR,0.00,VWS V14.01,2013-05-29 22:28:00,
2013-05-29 17:30:00,78.4,64.4,29.79,SSE,159,2.8,8.1,62,0.00,,CLR,0.00,VWS V14.01,2013-05-29 22:30:00,
2013-05-29 17:31:00,78.4,64.4,29.79,SSE,158,7.2,10.8,62,0.00,,CLR,0.00,VWS V14.01,2013-05-29 22:31:00,
2013-05-29 17:32:00,78.4,64.4,29.79,SE,127,4.4,10.8,62,0.00,,CLR,0.00,VWS V14.01,2013-05-29 22:32:00,
2013-05-29 17:34:00,78.4,65.0,29.79,South,179,12.5,14.8,63,0.00,,CLR,0.00,VWS V14.01,2013-05-29 22:34:00,
2013-05-29 17:36:00,78.4,64.4,29.79,SE,146,10.8,13.7,62,0.00,,CLR,0.00,VWS V14.01,2013-05-29 22:36:00,
2013-05-29 17:38:00,78.4,64.4,29.79,SSE,154,3.9,11.3,62,0.00,,CLR,0.00,VWS V14.01,2013-05-29 22:38:00,
2013-05-29 17:40:00,78.4,64.4,29.79,South,191,4.4,9.3,62,0.00,,CLR,0.00,VWS V14.01,2013-05-29 22:40:00,
2013-05-29 17:41:00,78.4,64.4,29.79,SSE,160,3.3,8.1,62,0.00,,SCT055,0.00,VWS V14.01,2013-05-29 22:41:00,
2013-05-29 17:42:00,78.4,64.4,29.79,SE,142,0.0,8.1,62,0.00,,CLR,0.00,VWS V14.01,2013-05-29 22:42:00,
2013-05-29 17:44:00,78.4,64.4,29.79,SE,140,5.0,10.8,62,0.00,,CLR,0.00,VWS V14.01,2013-05-29 22:44:00,
2013-05-29 17:46:00,78.4,64.4,29.79,East,95,13.6,14.2,62,0.00,,SCT055,0.00,VWS V14.01,2013-05-29 22:46:00,
2013-05-29 17:48:00,78.3,63.6,29.79,SE,126,11.4,22.1,61,0.00,,CLR,0.00,VWS V14.01,2013-05-29 22:48:00,
2013-05-29 17:50:00,78.4,63.8,29.79,South,183,6.7,13.1,61,0.00,,CLR,0.00,VWS V14.01,2013-05-29 22:50:00,
2013-05-29 17:51:00,78.4,64.4,29.79,ESE,109,7.2,11.9,62,0.00,,SCT055,0.00,VWS V14.01,2013-05-29 22:51:00,
2013-05-29 17:52:00,78.4,64.4,29.79,SE,140,6.1,11.9,62,0.00,,CLR,0.00,VWS V14.01,2013-05-29 22:52:00,
2013-05-29 17:54:00,78.4,63.8,29.79,South,186,7.8,16.0,61,0.00,,CLR,0.00,VWS V14.01,2013-05-29 22:54:00,
2013-05-29 17:56:00,78.4,64.4,29.79,SSW,207,3.9,8.1,62,0.00,,SCT055,0.00,VWS V14.01,2013-05-29 22:56:00,
2013-05-29 17:58:00,78.4,63.8,29.79,East,99,4.4,8.1,61,0.00,,CLR,0.00,VWS V14.01,2013-05-29 22:58:00,
2013-05-29 18:00:00,78.4,64.4,29.79,South,187,8.9,11.9,62,0.00,,CLR,0.00,VWS V14.01,2013-05-29 23:00:00,
2013-05-29 18:01:00,78.4,63.8,29.79,SSE,149,6.7,10.5,61,0.00,,BKN065,0.00,VWS V14.01,2013-05-29 23:01:00,
2013-05-29 18:02:00,78.4,63.8,29.79,SSE,149,6.7,10.5,61,0.00,,CLR,0.00,VWS V14.01,2013-05-29 23:02:00,
2013-05-29 18:04:00,78.4,63.8,29.79,SE,139,6.1,13.1,61,0.00,,CLR,0.00,VWS V14.01,2013-05-29 23:04:00,
2013-05-29 18:06:00,78.4,63.8,29.79,SSE,159,9.4,11.3,61,0.00,,BKN065,0.00,VWS V14.01,2013-05-29 23:06:00,
2013-05-29 18:08:00,78.4,63.8,29.79,ESE,108,3.9,10.8,61,0.00,,CLR,0.00,VWS V14.01,2013-05-29 23:08:00,
2013-05-29 18:10:00,78.4,63.8,29.79,SSE,166,10.8,11.9,61,0.00,,CLR,0.00,VWS V14.01,2013-05-29 23:10:00,
2013-05-29 18:12:00,78.4,63.8,29.76,South,176,6.7,19.5,61,0.00,,BKN065,0.00,VWS V14.01,2013-05-29 23:12:00,
2013-05-29 18:14:00,78.4,63.8,29.76,SSE,167,9.4,11.3,61,0.00,,CLR,0.00,VWS V14.01,2013-05-29 23:14:00,
2013-05-29 18:16:00,78.3,63.6,29.76,SSE,161,7.2,13.1,61,0.00,,CLR,0.00,VWS V14.01,2013-05-29 23:16:00,
2013-05-29 18:17:00,78.3,63.6,29.76,SSE,162,3.3,11.9,61,0.00,,BKN065,0.00,VWS V14.01,2013-05-29 23:17:00,
2013-05-29 18:18:00,78.3,63.6,29.76,East,100,6.1,14.2,61,0.00,,CLR,0.00,VWS V14.01,2013-05-29 23:18:00,
2013-05-29 18:20:00,78.3,63.6,29.76,South,186,3.3,9.9,61,0.00,,CLR,0.00,VWS V14.01,2013-05-29 23:20:00,
2013-05-29 18:22:00,78.3,63.6,29.76,South,169,10.0,10.5,61,0.00,,BKN065,0.00,VWS V14.01,2013-05-29 23:22:00,
2013-05-29 18:24:00,78.3,63.6,29.76,SE,133,10.0,14.2,61,0.00,,CLR,0.00,VWS V14.01,2013-05-29 23:24:00,
2013-05-29 18:26:00,78.3,64.2,29.76,SSE,163,9.4,10.5,62,0.00,,CLR,0.00,VWS V14.01,2013-05-29 23:26:00,
2013-05-29 18:27:00,78.3,64.2,29.76,SE,146,12.5,13.1,62,0.00,,BKN065,0.00,VWS V14.01,2013-05-29 23:27:00,
2013-05-29 18:28:00,78.3,63.6,29.76,South,172,7.8,20.1,61,0.00,,CLR,0.00,VWS V14.01,2013-05-29 23:28:00,
2013-05-29 18:30:00,78.3,63.6,29.76,SE,135,10.3,16.6,61,0.00,,CLR,0.00,VWS V14.01,2013-05-29 23:30:00,
2013-05-29 18:32:00,78.3,63.6,29.76,SE,146,7.2,13.1,61,0.00,,BKN065,0.00,VWS V14.01,2013-05-29 23:32:00,
2013-05-29 18:34:00,78.3,63.6,29.76,SSE,152,7.8,18.9,61,0.00,,CLR,0.00,VWS V14.01,2013-05-29 23:34:00,
2013-05-29 18:36:00,78.3,63.6,29.76,SE,133,3.3,14.2,61,0.00,,CLR,0.00,VWS V14.01,2013-05-29 23:36:00,
2013-05-29 18:37:00,78.4,63.8,29.76,SSE,155,13.6,14.2,61,0.00,,BKN065,0.00,VWS V14.01,2013-05-29 23:37:00,
2013-05-29 18:38:00,78.4,63.8,29.76,South,182,7.2,14.2,61,0.00,,CLR,0.00,VWS V14.01,2013-05-29 23:38:00,
2013-05-29 18:40:00,78.4,63.8,29.76,SSE,157,9.4,12.5,61,0.00,,CLR,0.00,VWS V14.01,2013-05-29 23:40:00,
2013-05-29 18:42:00,78.6,63.9,29.76,South,170,10.0,12.5,61,0.00,,FEW046,0.00,VWS V14.01,2013-05-29 23:42:00,
2013-05-29 18:44:00,78.6,63.9,29.76,SSE,160,10.3,17.2,61,0.00,,CLR,0.00,VWS V14.01,2013-05-29 23:44:00,
2013-05-29 18:46:00,78.8,63.5,29.76,SW,215,9.4,16.0,59,0.00,,CLR,0.00,VWS V14.01,2013-05-29 23:46:00,
2013-05-29 18:47:00,78.8,63.5,29.76,ESE,111,7.8,16.0,59,0.00,,FEW046,0.00,VWS V14.01,2013-05-29 23:47:00,
2013-05-29 18:48:00,78.8,63.5,29.76,SSE,168,10.3,13.1,59,0.00,,CLR,0.00,VWS V14.01,2013-05-29 23:48:00,
2013-05-29 18:50:00,78.8,63.5,29.76,ESE,110,12.5,20.1,59,0.00,,CLR,0.00,VWS V14.01,2013-05-29 23:50:00,
2013-05-29 18:52:00,78.8,63.5,29.76,South,172,12.5,22.1,59,0.00,,FEW046,0.00,VWS V14.01,2013-05-29 23:52:00,
2013-05-29 18:54:00,78.8,63.5,29.76,South,182,6.7,15.4,59,0.00,,CLR,0.00,VWS V14.01,2013-05-29 23:54:00,
2013-05-29 18:56:00,78.6,63.9,29.76,South,176,7.2,13.7,61,0.00,,CLR,0.00,VWS V14.01,2013-05-29 23:56:00,
2013-05-29 18:57:00,78.4,63.8,29.76,SSE,155,10.8,11.3,61,0.00,,FEW046,0.00,VWS V14.01,2013-05-29 23:57:00,
2013-05-29 18:58:00,78.4,63.8,29.76,SSW,200,7.2,11.3,61,0.00,,CLR,0.00,VWS V14.01,2013-05-29 23:58:00,
2013-05-29 19:00:00,78.3,63.6,29.76,SSE,149,6.7,17.7,61,0.00,,CLR,0.00,VWS V14.01,2013-05-30 00:00:00,
2013-05-29 19:02:00,78.3,63.6,29.76,SSW,197,5.0,8.1,61,0.00,,FEW038,0.00,VWS V14.01,2013-05-30 00:02:00,
2013-05-29 19:04:00,78.3,63.0,29.76,SE,129,15.8,16.6,59,0.00,,CLR,0.00,VWS V14.01,2013-05-30 00:04:00,
2013-05-29 19:06:00,78.4,63.1,29.76,SE,144,13.0,13.7,59,0.00,,CLR,0.00,VWS V14.01,2013-05-30 00:06:00,
2013-05-29 19:07:00,78.4,63.1,29.76,SE,139,10.3,16.0,59,0.00,,FEW038,0.00,VWS V14.01,2013-05-30 00:07:00,
2013-05-29 19:08:00,78.6,63.3,29.76,SSE,154,7.8,16.0,59,0.00,,CLR,0.00,VWS V14.01,2013-05-30 00:08:00,
2013-05-29 19:10:00,78.6,63.3,29.76,SSW,211,10.0,11.3,59,0.00,,CLR,0.00,VWS V14.01,2013-05-30 00:10:00,
2013-05-29 19:12:00,78.4,63.1,29.76,ESE,122,6.7,13.1,59,0.00,,FEW038,0.00,VWS V14.01,2013-05-30 00:12:00,
2013-05-29 19:14:00,78.4,63.1,29.76,ESE,122,9.4,10.5,59,0.00,,CLR,0.00,VWS V14.01,2013-05-30 00:14:00,
2013-05-29 19:16:00,78.4,63.8,29.76,ESE,106,12.5,13.1,61,0.00,,CLR,0.00,VWS V14.01,2013-05-30 00:16:00,
2013-05-29 19:17:00,78.4,63.1,29.76,SSE,151,6.7,13.7,59,0.00,,FEW038,0.00,VWS V14.01,2013-05-30 00:17:00,
2013-05-29 19:18:00,78.4,63.8,29.76,East,96,7.8,13.7,61,0.00,,CLR,0.00,VWS V14.01,2013-05-30 00:18:00,
2013-05-29 19:20:00,78.3,63.6,29.76,South,190,6.7,15.4,61,0.00,,CLR,0.00,VWS V14.01,2013-05-30 00:20:00,
2013-05-29 19:22:00,78.1,63.4,29.76,SSE,156,13.6,15.4,61,0.00,,FEW065,0.00,VWS V14.01,2013-05-30 00:22:00,
2013-05-29 19:24:00,78.1,63.4,29.76,South,170,10.0,15.4,61,0.00,,CLR,0.00,VWS V14.01,2013-05-30 00:24:00,
2013-05-29 19:26:00,77.9,63.2,29.76,SSE,158,3.9,10.5,61,0.00,,CLR,0.00,VWS V14.01,2013-05-30 00:26:00,
2013-05-29 19:27:00,77.9,63.9,29.79,ESE,121,3.9,9.9,62,0.00,,FEW065,0.00,VWS V14.01,2013-05-30 00:27:00,
2013-05-29 19:28:00,77.9,63.9,29.79,SSE,157,10.8,11.3,62,0.00,,CLR,0.00,VWS V14.01,2013-05-30 00:28:00,
2013-05-29 19:30:00,77.9,63.9,29.79,SSE,148,10.3,11.3,62,0.00,,CLR,0.00,VWS V14.01,2013-05-30 00:30:00,
2013-05-29 19:32:00,77.7,63.7,29.79,ESE,118,10.0,13.1,62,0.00,,FEW065,0.00,VWS V14.01,2013-05-30 00:32:00,
2013-05-29 19:34:00,77.7,63.7,29.79,SSE,165,4.4,11.9,62,0.00,,CLR,0.00,VWS V14.01,2013-05-30 00:34:00,
2013-05-29 19:36:00,77.5,64.1,29.79,SE,136,10.0,11.3,63,0.00,,CLR,0.00,VWS V14.01,2013-05-30 00:36:00,
2013-05-29 19:37:00,77.5,64.1,29.79,ESE,108,7.2,10.8,63,0.00,,FEW065,0.00,VWS V14.01,2013-05-30 00:37:00,
2013-05-29 19:38:00,77.5,64.1,29.79,SE,129,5.0,10.5,63,0.00,,CLR,0.00,VWS V14.01,2013-05-30 00:38:00,
2013-05-29 19:40:00,77.4,64.0,29.79,ESE,109,13.6,14.2,63,0.00,,CLR,0.00,VWS V14.01,2013-05-30 00:40:00,
2013-05-29 19:42:00,77.4,64.0,29.76,SE,131,10.3,14.2,63,0.00,,SCT044,0.00,VWS V14.01,2013-05-30 00:42:00,
2013-05-29 19:44:00,77.4,64.0,29.76,SE,140,7.8,18.9,63,0.00,,CLR,0.00,VWS V14.01,2013-05-30 00:44:00,
2013-05-29 19:46:00,77.2,63.8,29.76,SSE,155,9.4,10.8,63,0.00,,CLR,0.00,VWS V14.01,2013-05-30 00:46:00,
2013-05-29 19:47:00,77.2,63.8,29.76,ESE,103,10.8,13.1,63,0.00,,SCT044,0.00,VWS V14.01,2013-05-30 00:47:00,
2013-05-29 19:48:00,77.2,63.8,29.76,SSE,152,13.0,16.6,63,0.00,,CLR,0.00,VWS V14.01,2013-05-30 00:48:00,
2013-05-29 19:50:00,77.2,64.4,29.76,SE,130,10.0,16.6,65,0.00,,CLR,0.00,VWS V14.01,2013-05-30 00:50:00,
2013-05-29 19:52:00,77.0,63.0,29.76,SSE,154,18.6,19.5,62,0.00,,CLR,0.00,VWS V14.01,2013-05-30 00:52:00,
2013-05-29 19:53:00,77.0,63.0,29.76,SSE,148,13.6,19.5,62,0.00,,SCT044,0.00,VWS V14.01,2013-05-30 00:53:00,
2013-05-29 19:54:00,77.0,63.0,29.76,SSW,200,10.0,19.5,62,0.00,,CLR,0.00,VWS V14.01,2013-05-30 00:54:00,
2013-05-29 19:56:00,77.2,62.6,29.79,SSE,158,5.0,11.3,61,0.00,,CLR,0.00,VWS V14.01,2013-05-30 00:56:00,
2013-05-29 19:58:00,77.2,62.6,29.79,South,180,10.8,16.6,61,0.00,,SCT044,0.00,VWS V14.01,2013-05-30 00:58:00,
2013-05-29 20:00:00,77.2,62.0,29.79,SW,220,5.0,17.2,59,0.00,,CLR,0.00,VWS V14.01,2013-05-30 01:00:00,
2013-05-29 20:02:00,77.2,62.0,29.79,SSW,202,14.7,15.4,59,0.00,,CLR,0.00,VWS V14.01,2013-05-30 01:02:00,
2013-05-29 20:03:00,77.2,62.0,29.79,South,177,7.2,15.4,59,0.00,,SCT042,0.00,VWS V14.01,2013-05-30 01:03:00,
2013-05-29 20:04:00,77.2,62.0,29.79,SE,135,10.8,15.4,59,0.00,,CLR,0.00,VWS V14.01,2013-05-30 01:04:00,
2013-05-29 20:06:00,77.2,62.0,29.79,ESE,113,5.0,13.7,59,0.00,,CLR,0.00,VWS V14.01,2013-05-30 01:06:00,
2013-05-29 20:08:00,77.2,62.0,29.79,North,357,10.3,11.9,59,0.00,,SCT042,0.00,VWS V14.01,2013-05-30 01:08:00,
2013-05-29 20:10:00,77.0,61.8,29.79,SSE,165,7.8,22.1,59,0.00,,CLR,0.00,VWS V14.01,2013-05-30 01:10:00,
2013-05-29 20:12:00,77.0,61.8,29.79,ESE,122,6.7,13.7,59,0.00,,CLR,0.00,VWS V14.01,2013-05-30 01:12:00,
2013-05-29 20:13:00,77.0,61.8,29.79,SSE,158,10.0,13.7,59,0.00,,SCT042,0.00,VWS V14.01,2013-05-30 01:13:00,
2013-05-29 20:14:00,77.0,61.8,29.79,SSE,153,19.7,20.6,59,0.00,,CLR,0.00,VWS V14.01,2013-05-30 01:14:00,
2013-05-29 20:16:00,77.0,61.8,29.79,SSE,154,6.7,20.6,59,0.00,,CLR,0.00,VWS V14.01,2013-05-30 01:16:00,
2013-05-29 20:18:00,76.8,62.2,29.79,SSE,162,4.4,11.3,61,0.00,,SCT042,0.00,VWS V14.01,2013-05-30 01:18:00,
2013-05-29 20:20:00,76.8,62.2,29.79,South,190,10.8,13.1,61,0.00,,CLR,0.00,VWS V14.01,2013-05-30 01:20:00,
2013-05-29 20:22:00,76.8,62.2,29.79,South,179,3.9,14.8,61,0.00,,CLR,0.00,VWS V14.01,2013-05-30 01:22:00,
2013-05-29 20:23:00,76.6,62.1,29.79,South,169,8.3,11.3,61,0.00,,FEW042,0.00,VWS V14.01,2013-05-30 01:23:00,
2013-05-29 20:24:00,76.6,62.1,29.79,SE,141,7.8,14.2,61,0.00,,CLR,0.00,VWS V14.01,2013-05-30 01:24:00,
2013-05-29 20:26:00,76.6,62.7,29.79,South,173,10.3,10.8,62,0.00,,CLR,0.00,VWS V14.01,2013-05-30 01:26:00,
2013-05-29 20:28:00,76.5,62.5,29.79,SE,140,5.0,11.9,62,0.00,,FEW042,0.00,VWS V14.01,2013-05-30 01:28:00,
2013-05-29 20:30:00,76.3,62.3,29.79,SSE,164,4.4,10.8,62,0.00,,CLR,0.00,VWS V14.01,2013-05-30 01:30:00,
2013-05-29 20:32:00,76.3,62.3,29.79,SW,220,3.3,11.3,62,0.00,,CLR,0.00,VWS V14.01,2013-05-30 01:32:00,
2013-05-29 20:33:00,76.3,62.3,29.79,SE,133,0.0,11.3,62,0.00,,FEW042,0.00,VWS V14.01,2013-05-30 01:33:00,
2013-05-29 20:34:00,76.3,62.3,29.79,SSE,151,6.7,7.0,62,0.00,,CLR,0.00,VWS V14.01,2013-05-30 01:34:00,
2013-05-29 20:36:00,76.1,62.8,29.79,SSE,147,6.7,11.3,63,0.00,,CLR,0.00,VWS V14.01,2013-05-30 01:36:00,
2013-05-29 20:38:00,76.1,62.8,29.79,SSE,157,10.8,11.3,63,0.00,,CLR,0.00,VWS V14.01,2013-05-30 01:38:00,
2013-05-29 20:40:00,76.1,62.8,29.79,SSE,157,7.8,11.3,63,0.00,,CLR,0.00,VWS V14.01,2013-05-30 01:40:00,
2013-05-29 20:42:00,75.9,62.6,29.79,SSE,149,7.8,13.1,63,0.00,,CLR,0.00,VWS V14.01,2013-05-30 01:42:00,
2013-05-29 20:43:00,75.9,62.6,29.79,South,169,7.8,14.2,63,0.00,,CLR,0.00,VWS V14.01,2013-05-30 01:43:00,
2013-05-29 20:44:00,75.9,62.6,29.79,SSE,164,7.2,14.2,63,0.00,,CLR,0.00,VWS V14.01,2013-05-30 01:44:00,
2013-05-29 20:46:00,75.9,62.6,29.79,SSE,158,5.0,11.3,63,0.00,,CLR,0.00,VWS V14.01,2013-05-30 01:46:00,
2013-05-29 20:48:00,75.9,62.6,29.79,SSE,159,12.5,13.1,63,0.00,,CLR,0.00,VWS V14.01,2013-05-30 01:48:00,
2013-05-29 20:50:00,75.7,63.0,29.79,SE,139,7.8,13.1,65,0.00,,CLR,0.00,VWS V14.01,2013-05-30 01:50:00,
2013-05-29 20:52:00,75.7,63.0,29.79,SE,144,10.8,13.7,65,0.00,,CLR,0.00,VWS V14.01,2013-05-30 01:52:00,
2013-05-29 20:53:00,75.7,63.0,29.79,South,176,10.3,14.2,65,0.00,,CLR,0.00,VWS V14.01,2013-05-30 01:53:00,
2013-05-29 20:54:00,75.7,63.0,29.79,SSW,196,10.8,20.1,65,0.00,,CLR,0.00,VWS V14.01,2013-05-30 01:54:00,
2013-05-29 20:56:00,75.6,62.8,29.79,South,172,12.5,16.6,65,0.00,,CLR,0.00,VWS V14.01,2013-05-30 01:56:00,
2013-05-29 20:58:00,75.6,62.2,29.79,ESE,110,7.2,12.5,63,0.00,,CLR,0.00,VWS V14.01,2013-05-30 01:58:00,
2013-05-29 21:00:00,75.6,62.2,29.79,ESE,112,7.8,11.3,63,0.00,,CLR,0.00,VWS V14.01,2013-05-30 02:00:00,
2013-05-29 21:02:00,75.6,62.2,29.79,SSW,200,5.0,13.7,63,0.00,,CLR,0.00,VWS V14.01,2013-05-30 02:02:00,
2013-05-29 21:03:00,75.6,62.2,29.79,South,189,9.4,18.9,63,0.00,,CLR,0.00,VWS V14.01,2013-05-30 02:03:00,
2013-05-29 21:04:00,75.6,62.2,29.79,SSE,162,7.8,18.9,63,0.00,,CLR,0.00,VWS V14.01,2013-05-30 02:04:00,
2013-05-29 21:06:00,75.6,62.2,29.79,SE,142,9.4,11.3,63,0.00,,CLR,0.00,VWS V14.01,2013-05-30 02:06:00,
2013-05-29 21:08:00,75.6,62.2,29.79,SSE,153,10.0,10.5,63,0.00,,CLR,0.00,VWS V14.01,2013-05-30 02:08:00,
2013-05-29 21:10:00,75.4,62.1,29.79,ESE,122,6.7,10.5,63,0.00,,CLR,0.00,VWS V14.01,2013-05-30 02:10:00,
2013-05-29 21:12:00,75.4,62.1,29.79,SE,143,7.2,10.8,63,0.00,,CLR,0.00,VWS V14.01,2013-05-30 02:12:00,
2013-05-29 21:13:00,75.4,62.1,29.79,SSE,150,10.3,10.8,63,0.00,,CLR,0.00,VWS V14.01,2013-05-30 02:13:00,
2013-05-29 21:14:00,75.4,62.1,29.79,SE,142,10.8,11.3,63,0.00,,CLR,0.00,VWS V14.01,2013-05-30 02:14:00,
2013-05-29 21:16:00,75.4,62.1,29.79,SE,144,7.8,11.3,63,0.00,,CLR,0.00,VWS V14.01,2013-05-30 02:16:00,
2013-05-29 21:18:00,75.4,62.1,29.79,South,174,7.8,8.1,63,0.00,,CLR,0.00,VWS V14.01,2013-05-30 02:18:00,
2013-05-29 21:20:00,75.4,62.1,29.79,South,178,7.2,11.9,63,0.00,,CLR,0.00,VWS V14.01,2013-05-30 02:20:00,
2013-05-29 21:22:00,75.4,62.1,29.79,South,178,4.4,8.1,63,0.00,,CLR,0.00,VWS V14.01,2013-05-30 02:22:00,
2013-05-29 21:23:00,75.4,62.1,29.79,East,89,3.9,7.6,63,0.00,,CLR,0.00,VWS V14.01,2013-05-30 02:23:00,
2013-05-29 21:24:00,75.4,62.1,29.79,ENE,64,10.0,10.5,63,0.00,,CLR,0.00,VWS V14.01,2013-05-30 02:24:00,
2013-05-29 21:26:00,75.2,61.9,29.79,SE,143,3.9,13.1,63,0.00,,CLR,0.00,VWS V14.01,2013-05-30 02:26:00,
2013-05-29 21:28:00,75.2,61.9,29.79,SSE,152,6.7,18.3,63,0.00,,CLR,0.00,VWS V14.01,2013-05-30 02:28:00,
2013-05-29 21:30:00,75.2,61.9,29.79,SSE,166,12.5,14.2,63,0.00,,CLR,0.00,VWS V14.01,2013-05-30 02:30:00,
2013-05-29 21:32:00,75.2,62.5,29.79,SE,124,15.3,16.0,65,0.00,,CLR,0.00,VWS V14.01,2013-05-30 02:32:00,
2013-05-29 21:33:00,75.2,61.9,29.79,East,87,6.7,16.0,63,0.00,,CLR,0.00,VWS V14.01,2013-05-30 02:33:00,
2013-05-29 21:34:00,75.2,61.9,29.79,SE,132,5.0,16.0,63,0.00,,CLR,0.00,VWS V14.01,2013-05-30 02:34:00,
2013-05-29 21:36:00,75.2,62.5,29.79,SE,141,3.9,10.8,65,0.00,,CLR,0.00,VWS V14.01,2013-05-30 02:36:00,
2013-05-29 21:38:00,75.0,62.3,29.79,East,83,8.9,10.8,65,0.00,,CLR,0.00,VWS V14.01,2013-05-30 02:38:00,
2013-05-29 21:40:00,75.0,62.3,29.79,ESE,111,9.4,13.1,65,0.00,,CLR,0.00,VWS V14.01,2013-05-30 02:40:00,
2013-05-29 21:42:00,75.0,62.3,29.79,SSE,154,7.8,18.9,65,0.00,,CLR,0.00,VWS V14.01,2013-05-30 02:42:00,
2013-05-29 21:43:00,75.0,62.3,29.79,West,266,3.9,13.7,65,0.00,,CLR,0.00,VWS V14.01,2013-05-30 02:43:00,
2013-05-29 21:44:00,75.0,62.3,29.79,SSE,150,10.0,13.7,65,0.00,,CLR,0.00,VWS V14.01,2013-05-30 02:44:00,
2013-05-29 21:46:00,75.0,62.9,29.79,SE,135,6.1,13.1,66,0.00,,CLR,0.00,VWS V14.01,2013-05-30 02:46:00,
2013-05-29 21:48:00,74.8,62.7,29.79,ESE,121,10.0,13.1,66,0.00,,CLR,0.00,VWS V14.01,2013-05-30 02:48:00,
2013-05-29 21:50:00,74.8,62.7,29.79,SE,144,4.4,13.7,66,0.00,,CLR,0.00,VWS V14.01,2013-05-30 02:50:00,
2013-05-29 21:52:00,74.8,62.7,29.79,SSE,151,9.4,9.9,66,0.00,,CLR,0.00,VWS V14.01,2013-05-30 02:52:00,
2013-05-29 21:53:00,74.7,62.6,29.79,ESE,110,3.9,11.3,66,0.00,,CLR,0.00,VWS V14.01,2013-05-30 02:53:00,
2013-05-29 21:54:00,74.7,62.6,29.79,SSE,154,4.4,11.3,66,0.00,,CLR,0.00,VWS V14.01,2013-05-30 02:54:00,
2013-05-29 21:56:00,74.7,62.6,29.79,SE,124,5.0,9.9,66,0.00,,CLR,0.00,VWS V14.01,2013-05-30 02:56:00,
2013-05-29 21:58:00,74.7,63.1,29.79,South,187,7.8,8.1,67,0.00,,CLR,0.00,VWS V14.01,2013-05-30 02:58:00,
2013-05-29 22:00:00,74.7,63.1,29.79,SE,124,6.1,13.1,67,0.00,,CLR,0.00,VWS V14.01,2013-05-30 03:00:00,
2013-05-29 22:02:00,74.5,63.0,29.79,East,101,3.3,10.5,67,0.00,,CLR,0.00,VWS V14.01,2013-05-30 03:02:00,
2013-05-29 22:03:00,74.5,63.0,29.79,SSE,165,7.8,10.5,67,0.00,,CLR,0.00,VWS V14.01,2013-05-30 03:03:00,
2013-05-29 22:04:00,74.5,63.0,29.79,ESE,120,7.8,10.5,67,0.00,,CLR,0.00,VWS V14.01,2013-05-30 03:04:00,
2013-05-29 22:06:00,74.5,63.5,29.79,SE,131,12.5,13.1,69,0.00,,CLR,0.00,VWS V14.01,2013-05-30 03:06:00,
2013-05-29 22:08:00,74.3,63.3,29.79,SE,136,6.1,10.8,69,0.00,,CLR,0.00,VWS V14.01,2013-05-30 03:08:00,
2013-05-29 22:10:00,74.3,63.3,29.79,SSE,165,6.7,10.8,69,0.00,,CLR,0.00,VWS V14.01,2013-05-30 03:10:00,
2013-05-29 22:12:00,74.3,63.3,29.79,SE,134,10.8,11.3,69,0.00,,CLR,0.00,VWS V14.01,2013-05-30 03:12:00,
2013-05-29 22:14:00,74.3,63.9,29.79,ESE,119,7.8,13.7,70,0.00,,CLR,0.00,VWS V14.01,2013-05-30 03:14:00,
2013-05-29 22:16:00,74.3,63.9,29.79,SE,125,7.2,8.1,70,0.00,,CLR,0.00,VWS V14.01,2013-05-30 03:16:00,
2013-05-29 22:18:00,74.3,63.9,29.79,ESE,105,5.0,7.6,70,0.00,,CLR,0.00,VWS V14.01,2013-05-30 03:18:00,
2013-05-29 22:19:00,74.3,63.9,29.79,ESE,104,7.8,10.5,70,0.00,,CLR,0.00,VWS V14.01,2013-05-30 03:19:00,
2013-05-29 22:20:00,74.3,63.9,29.79,SE,131,15.3,16.0,70,0.00,,CLR,0.00,VWS V14.01,2013-05-30 03:20:00,
2013-05-29 22:22:00,74.1,63.7,29.79,SSE,151,3.9,16.0,70,0.00,,CLR,0.00,VWS V14.01,2013-05-30 03:22:00,
2013-05-29 22:24:00,74.1,63.7,29.79,SE,141,6.1,11.3,70,0.00,,CLR,0.00,VWS V14.01,2013-05-30 03:24:00,
2013-05-29 22:26:00,74.1,64.2,29.79,ESE,108,8.9,14.2,71,0.00,,CLR,0.00,VWS V14.01,2013-05-30 03:26:00,
2013-05-29 22:28:00,74.1,64.2,29.79,SSE,158,5.0,18.9,71,0.00,,CLR,0.00,VWS V14.01,2013-05-30 03:28:00,
2013-05-29 22:29:00,74.1,64.2,29.79,SSE,160,10.0,18.9,71,0.00,,CLR,0.00,VWS V14.01,2013-05-30 03:29:00,
2013-05-29 22:30:00,74.1,64.2,29.79,SE,144,6.7,10.8,71,0.00,,CLR,0.00,VWS V14.01,2013-05-30 03:30:00,
2013-05-29 22:32:00,74.3,64.4,29.79,SSE,162,12.5,13.1,71,0.00,,CLR,0.00,VWS V14.01,2013-05-30 03:32:00,
2013-05-29 22:34:00,74.1,64.2,29.79,South,170,4.4,13.1,71,0.00,,CLR,0.00,VWS V14.01,2013-05-30 03:34:00,
2013-05-29 22:36:00,74.1,64.2,29.79,SE,126,7.8,14.2,71,0.00,,CLR,0.00,VWS V14.01,2013-05-30 03:36:00,
2013-05-29 22:38:00,74.1,64.2,29.79,SE,127,9.4,14.8,71,0.00,,CLR,0.00,VWS V14.01,2013-05-30 03:38:00,
2013-05-29 22:39:00,74.1,64.2,29.79,South,171,4.4,14.8,71,0.00,,CLR,0.00,VWS V14.01,2013-05-30 03:39:00,
2013-05-29 22:40:00,74.1,64.2,29.79,East,88,6.7,11.3,71,0.00,,CLR,0.00,VWS V14.01,2013-05-30 03:40:00,
2013-05-29 22:42:00,74.1,64.8,29.79,SE,130,6.7,10.5,73,0.00,,CLR,0.00,VWS V14.01,2013-05-30 03:42:00,
2013-05-29 22:44:00,74.1,64.8,29.79,SSE,154,9.4,17.2,73,0.00,,CLR,0.00,VWS V14.01,2013-05-30 03:44:00,
2013-05-29 22:46:00,74.1,64.8,29.79,SE,139,7.2,10.8,73,0.00,,CLR,0.00,VWS V14.01,2013-05-30 03:46:00,
2013-05-29 22:48:00,74.1,64.8,29.79,SSE,151,3.9,11.3,73,0.00,,CLR,0.00,VWS V14.01,2013-05-30 03:48:00,
2013-05-29 22:49:00,74.1,64.8,29.79,SE,126,5.0,7.0,73,0.00,,CLR,0.00,VWS V14.01,2013-05-30 03:49:00,
2013-05-29 22:50:00,74.1,64.8,29.79,SE,130,15.3,16.0,73,0.00,,CLR,0.00,VWS V14.01,2013-05-30 03:50:00,
2013-05-29 22:52:00,74.1,64.8,29.79,SSE,152,13.0,16.0,73,0.00,,CLR,0.00,VWS V14.01,2013-05-30 03:52:00,
2013-05-29 22:54:00,74.1,64.8,29.79,ESE,103,9.4,13.7,73,0.00,,CLR,0.00,VWS V14.01,2013-05-30 03:54:00,
2013-05-29 22:56:00,74.1,64.8,29.79,South,183,8.9,13.7,73,0.00,,CLR,0.00,VWS V14.01,2013-05-30 03:56:00,
2013-05-29 22:58:00,74.1,64.8,29.79,ESE,108,6.7,10.8,73,0.00,,CLR,0.00,VWS V14.01,2013-05-30 03:58:00,
2013-05-29 22:59:00,74.1,64.8,29.79,SSE,159,6.1,10.5,73,0.00,,CLR,0.00,VWS V14.01,2013-05-30 03:59:00,
2013-05-29 23:00:00,74.1,64.8,29.79,SE,142,3.3,10.5,73,0.00,,CLR,0.00,VWS V14.01,2013-05-30 04:00:00,
2013-05-29 23:01:00,74.1,65.3,29.79,SSE,150,8.3,11.3,74,0.00,,CLR,0.00,VWS V14.01,2013-05-30 04:01:00,
2013-05-29 23:02:00,74.1,65.3,29.79,SE,128,7.8,12.5,74,0.00,,CLR,0.00,VWS V14.01,2013-05-30 04:02:00,
2013-05-29 23:04:00,74.1,65.3,29.79,East,93,4.4,10.5,74,0.00,,CLR,0.00,VWS V14.01,2013-05-30 04:04:00,
2013-05-29 23:06:00,74.1,65.3,29.79,SSE,161,16.4,23.8,74,0.00,,CLR,0.00,VWS V14.01,2013-05-30 04:06:00,
2013-05-29 23:08:00,74.1,65.3,29.79,SSW,195,9.4,17.2,74,0.00,,CLR,0.00,VWS V14.01,2013-05-30 04:08:00,
2013-05-29 23:09:00,74.1,65.3,29.79,SE,144,10.8,16.0,74,0.00,,CLR,0.00,VWS V14.01,2013-05-30 04:09:00,
2013-05-29 23:10:00,74.1,65.3,29.79,SSE,156,10.8,16.6,74,0.00,,CLR,0.00,VWS V14.01,2013-05-30 04:10:00,
2013-05-29 23:12:00,74.1,65.3,29.79,SW,216,9.4,11.3,74,0.00,,CLR,0.00,VWS V14.01,2013-05-30 04:12:00,
2013-05-29 23:14:00,74.1,65.3,29.79,SSE,159,7.8,12.5,74,0.00,,CLR,0.00,VWS V14.01,2013-05-30 04:14:00,
2013-05-29 23:16:00,74.1,65.3,29.79,SW,217,10.3,12.5,74,0.00,,CLR,0.00,VWS V14.01,2013-05-30 04:16:00,
2013-05-29 23:18:00,74.1,65.3,29.79,SE,133,4.4,13.7,74,0.00,,CLR,0.00,VWS V14.01,2013-05-30 04:18:00,
2013-05-29 23:19:00,74.1,65.3,29.79,SE,131,4.4,13.7,74,0.00,,CLR,0.00,VWS V14.01,2013-05-30 04:19:00,
2013-05-29 23:20:00,74.1,65.3,29.79,SSW,194,9.4,14.8,74,0.00,,CLR,0.00,VWS V14.01,2013-05-30 04:20:00,
2013-05-29 23:22:00,74.1,65.3,29.79,South,171,6.7,13.1,74,0.00,,CLR,0.00,VWS V14.01,2013-05-30 04:22:00,
2013-05-29 23:24:00,74.3,64.9,29.79,SE,144,9.4,14.2,73,0.00,,CLR,0.00,VWS V14.01,2013-05-30 04:24:00,
2013-05-29 23:26:00,74.3,64.9,29.79,SSE,148,5.5,10.8,73,0.00,,CLR,0.00,VWS V14.01,2013-05-30 04:26:00,
2013-05-29 23:28:00,74.3,64.9,29.79,South,170,10.8,16.0,73,0.00,,CLR,0.00,VWS V14.01,2013-05-30 04:28:00,
2013-05-29 23:29:00,74.3,64.9,29.79,SSE,152,7.2,16.0,73,0.00,,CLR,0.00,VWS V14.01,2013-05-30 04:29:00,
2013-05-29 23:30:00,74.3,64.9,29.79,SSE,161,10.3,11.3,73,0.00,,CLR,0.00,VWS V14.01,2013-05-30 04:30:00,
2013-05-29 23:32:00,74.3,64.9,29.79,South,185,6.7,13.7,73,0.00,,CLR,0.00,VWS V14.01,2013-05-30 04:32:00,
2013-05-29 23:34:00,74.3,64.9,29.79,ESE,123,5.0,13.1,73,0.00,,CLR,0.00,VWS V14.01,2013-05-30 04:34:00,
2013-05-29 23:36:00,74.3,64.9,29.79,South,177,8.9,13.1,73,0.00,,CLR,0.00,VWS V14.01,2013-05-30 04:36:00,
2013-05-29 23:38:00,74.3,64.9,29.79,SSE,157,10.3,16.0,73,0.00,,CLR,0.00,VWS V14.01,2013-05-30 04:38:00,
2013-05-29 23:39:00,74.3,64.9,29.79,SSE,163,7.8,13.7,73,0.00,,CLR,0.00,VWS V14.01,2013-05-30 04:39:00,
2013-05-29 23:40:00,74.3,64.9,29.79,SSE,160,6.7,13.7,73,0.00,,CLR,0.00,VWS V14.01,2013-05-30 04:40:00,
2013-05-29 23:42:00,74.3,64.9,29.79,SSE,156,9.4,11.3,73,0.00,,CLR,0.00,VWS V14.01,2013-05-30 04:42:00,
2013-05-29 23:44:00,74.3,64.9,29.79,SSE,151,7.2,13.1,73,0.00,,CLR,0.00,VWS V14.01,2013-05-30 04:44:00,
2013-05-29 23:46:00,74.5,65.1,29.79,South,176,10.8,17.2,73,0.00,,CLR,0.00,VWS V14.01,2013-05-30 04:46:00,
2013-05-29 23:48:00,74.5,65.1,29.79,South,188,13.0,13.7,73,0.00,,CLR,0.00,VWS V14.01,2013-05-30 04:48:00,
2013-05-29 23:49:00,74.5,65.1,29.79,SSE,162,5.5,13.7,73,0.00,,CLR,0.00,VWS V14.01,2013-05-30 04:49:00,
2013-05-29 23:50:00,74.5,65.1,29.79,ESE,110,8.3,13.7,73,0.00,,CLR,0.00,VWS V14.01,2013-05-30 04:50:00,
2013-05-29 23:52:00,74.3,64.9,29.79,SE,140,7.2,13.1,73,0.00,,CLR,0.00,VWS V14.01,2013-05-30 04:52:00,
2013-05-29 23:54:00,74.3,64.9,29.79,SE,132,12.5,17.2,73,0.00,,CLR,0.00,VWS V14.01,2013-05-30 04:54:00,
2013-05-29 23:56:00,74.3,64.9,29.79,SE,139,15.8,17.2,73,0.00,,CLR,0.00,VWS V14.01,2013-05-30 04:56:00,
2013-05-29 23:58:00,74.5,65.1,29.79,ESE,102,10.3,17.2,73,0.00,,CLR,0.00,VWS V14.01,2013-05-30 04:58:00,
2013-05-29 23:59:00,74.5,65.1,29.79,SSE,166,5.0,10.8,73,0.00,,CLR,0.00,VWS V14.01,2013-05-30 04:59:00,